GFSNE_sfc_rhum_012.txt.gz
RH
30 32 32 33 33 33 34 36 40 42 35 26 26 24 28 31 36 34 35 47 52 57 59 58 58 58 60 62 61 62 59 62 62 61 60 60 60 60
30 33 33 32 32 34 36 36 37 41 44 30 30 30 31 30 37 35 35 49 52 56 57 57 57 56 58 57 58 57 57 58 64 63 66 70 68 66
34 38 39 36 35 33 35 36 38 40 45 40 34 33 36 38 35 36 39 40 42 53 53 54 56 57 59 61 63 64 63 65 64 66 66 68 68 70
36 42 42 30 35 34 36 37 40 40 45 51 44 42 41 40 43 43 37 30 33 40 51 55 58 59 60 60 62 64 66 67 69 72 68 70 69 69
38 39 38 35 34 34 36 41 43 40 45 50 50 45 49 51 50 42 37 35 31 46 51 54 58 60 62 62 62 61 62 63 66 67 64 66 65 66
41 41 39 39 40 42 43 44 41 46 45 51 59 72 62 50 46 41 42 43 45 40 48 52 57 57 59 59 60 60 61 62 64 65 65 65 66 68
38 38 38 44 59 59 52 51 50 56 68 80 90 68 59 45 42 44 50 56 53 52 50 47 44 46 50 56 55 58 58 60 63 66 70 70 68 67
39 37 38 51 48 58 58 60 60 80 96 88 78 59 45 42 45 56 73 74 76 49 50 55 50 50 48 47 56 58 60 62 64 65 68 73 71 68
45 46 43 38 53 46 58 62 70 78 72 60 57 45 48 52 79 92 77 73 69 57 60 66 49 51 46 40 57 60 62 65 68 70 73 72 71 72
45 43 43 45 48 55 59 81 78 56 43 40 46 50 65 70 64 60 70 77 68 55 52 74 51 53 46 47 60 62 63 65 67 71 71 70 70 68
40 40 44 48 58 61 73 88 51 42 43 52 62 68 63 61 61 66 84 87 78 60 50 58 53 58 56 55 48 50 55 64 74 86 87 82 77 73
39 40 52 56 58 70 63 50 56 48 59 70 48 46 49 48 58 54 75 95 89 87 50 74 69 66 76 47 46 53 54 61 63 70 80 85 84 84
44 47 45 54 63 62 61 49 53 60 63 50 46 46 46 47 49 58 71 92 95 91 61 77 90 83 86 84 59 56 57 59 62 67 74 76 78 93
58 46 47 62 63 62 58 62 67 66 49 50 53 53 61 74 75 78 80 85 83 93 86 91 96 93 93 87 80 60 61 67 77 84 90 87 85 81
48 55 61 61 60 54 57 66 64 51 52 60 64 75 76 75 83 83 84 82 83 83 84 85 92 94 93 93 89 84 81 77 82 91 95 97 97 97
54 57 53 55 54 54 51 48 48 50 59 66 66 62 59 74 75 75 82 80 84 80 80 84 89 96 95 89 90 87 86 94 84 85 94 94 94 96
59 47 42 42 48 48 49 50 51 53 68 68 73 71 66 70 76 75 80 85 87 85 82 78 83 87 89 93 94 84 78 78 85 92 98 96 88 92
55 46 48 52 56 56 59 61 63 72 71 79 81 83 86 86 85 82 82 86 88 82 83 81 86 86 82 80 71 82 79 83 87 90 97 98 90 86
49 52 59 61 64 66 71 78 82 75 85 83 89 89 91 90 86 86 85 86 86 84 85 86 91 94 94 89 73 68 85 88 91 90 87 97 97 95
52 56 65 63 66 74 79 82 82 79 80 82 89 93 94 93 92 91 89 91 90 88 87 87 90 95 97 95 95 87 80 92 96 93 92 87 87 81
54 60 61 65 72 78 82 86 87 86 88 93 92 92 93 95 92 90 90 86 85 88 93 88 87 79 93 88 92 78 77 72 81 98 98 97 96 91
55 63 64 68 77 85 88 88 87 85 87 89 90 92 92 94 94 91 87 92 88 92 93 88 85 91 84 86 89 87 80 75 73 82 84 98 99 98
62 64 69 75 83 88 89 87 87 88 88 92 92 92 94 94 90 89 90 90 92 93 88 86 80 84 84 85 85 86 88 84 81 89 85 94 98 98

GFSNE_sfc_rhum_015.txt.gz
RH
34 36 37 36 38 38 39 41 46 51 45 34 31 29 30 31 36 34 36 45 49 52 53 54 55 56 57 57 58 58 60 60 62 62 60 58 59 65
32 33 35 36 36 40 42 40 41 46 51 37 36 33 32 31 37 37 38 47 49 51 52 53 53 53 55 56 58 60 62 64 66 65 68 68 66 66
33 40 39 39 40 38 39 39 42 44 50 44 40 38 40 41 38 41 46 42 42 48 49 50 51 54 56 58 60 63 63 63 64 67 66 70 69 68
34 45 46 32 39 37 38 39 41 41 49 53 48 47 46 42 45 54 45 34 39 40 48 51 54 55 57 58 59 61 63 62 64 67 70 71 74 69
36 37 39 39 39 38 40 44 46 42 49 54 55 49 50 52 64 50 45 42 33 45 49 53 55 57 58 58 58 58 58 58 61 62 68 70 66 67
38 40 38 41 41 42 49 51 48 54 54 58 64 71 71 71 55 52 47 47 50 41 51 53 56 56 57 56 57 58 59 60 60 61 62 67 67 66
37 35 37 44 49 52 53 58 58 61 70 83 80 81 70 57 55 49 53 58 59 64 57 55 52 52 54 57 56 57 57 59 60 62 67 69 70 71
38 36 38 50 45 50 54 55 56 70 84 85 94 72 64 55 50 62 73 85 88 56 60 60 57 59 56 54 55 56 58 60 61 64 67 70 70 67
47 49 46 36 51 47 51 55 64 66 70 64 62 56 55 56 74 84 85 79 75 65 65 76 64 62 54 45 56 58 61 63 64 65 66 68 70 71
47 43 43 45 50 51 58 76 75 70 56 43 49 53 61 68 90 87 72 78 70 65 62 84 62 63 55 55 61 62 62 62 59 60 66 75 86 84
39 39 41 45 51 55 61 83 69 53 46 51 55 62 63 58 57 61 82 87 84 69 61 70 67 69 65 65 58 54 54 57 64 64 66 67 68 80
42 41 47 48 53 56 64 60 67 58 59 67 62 54 51 51 54 56 73 96 92 90 62 81 84 78 87 59 59 60 63 62 63 65 65 65 69 85
50 50 50 52 57 60 60 58 60 57 66 63 56 52 52 52 55 65 74 90 96 93 70 79 94 89 92 89 69 64 64 66 68 67 70 72 72 80
56 57 52 58 59 59 59 58 62 63 58 55 58 60 67 76 78 79 79 82 84 95 87 89 96 96 95 92 85 66 66 70 79 83 84 79 77 80
53 54 59 59 58 54 54 59 58 56 56 64 70 79 79 78 81 81 82 81 82 81 81 83 91 95 96 94 92 88 81 75 82 88 87 95 97 97
57 62 57 54 48 49 49 50 52 53 63 74 76 71 68 79 79 79 86 83 89 84 78 82 86 90 96 93 92 92 84 89 85 85 84 87 87 86
60 58 51 44 52 50 53 55 57 59 75 77 82 83 75 78 82 80 84 90 93 87 84 80 80 82 85 94 96 86 83 85 83 82 84 91 86 85
60 55 50 57 60 58 62 65 68 76 79 85 87 88 91 90 88 87 85 89 93 89 89 85 86 92 84 79 71 83 79 82 82 84 86 97 92 82
51 55 62 66 68 69 74 81 86 82 85 89 93 91 93 93 87 90 90 91 90 86 85 85 92 96 95 91 73 66 91 90 89 91 86 92 97 88
52 57 69 68 70 76 81 86 88 85 84 87 91 93 94 95 93 92 91 93 93 91 92 87 87 92 97 96 95 84 75 87 95 95 93 88 86 77
55 62 65 70 75 80 86 90 90 89 88 93 92 94 94 95 93 90 91 86 86 91 93 90 86 77 87 92 95 80 74 71 79 97 98 98 97 95
55 66 69 74 79 86 91 91 91 87 89 92 92 94 94 95 95 94 93 95 92 91 94 91 83 88 95 92 93 92 86 79 74 79 87 98 99 98
66 68 75 80 84 89 92 92 90 90 89 93 93 94 94 95 93 93 92 91 93 96 94 93 89 85 83 85 89 94 92 88 92 94 89 82 95 98

GFSNE_sfc_rhum_018.txt.gz
RH
45 48 52 53 54 56 57 58 65 63 57 55 51 40 46 44 48 41 42 48 49 53 54 53 53 54 54 55 56 56 56 60 63 64 69 65 70 66
44 44 49 53 55 58 60 59 60 66 61 50 48 51 48 40 43 42 45 48 54 56 53 52 52 52 53 55 56 61 62 62 66 64 70 71 67 70
44 49 51 52 58 57 57 57 60 63 62 50 49 51 56 56 50 50 47 58 54 54 52 52 50 52 55 56 59 59 60 64 67 68 68 70 73 69
45 51 57 42 55 55 58 56 59 59 61 64 59 58 62 56 53 63 60 50 46 48 50 50 53 55 57 58 59 60 62 63 63 65 69 66 64 67
47 51 52 53 57 58 56 65 69 55 70 71 68 62 61 64 72 81 60 49 43 46 50 54 56 60 59 59 58 58 58 59 59 60 62 64 65 68
52 53 53 53 56 58 61 68 63 75 73 74 74 81 79 73 80 68 62 58 56 48 53 61 62 60 61 58 60 61 61 60 60 60 60 61 63 64
50 47 48 54 50 52 53 72 74 78 84 89 82 78 90 70 72 68 62 61 62 66 73 62 61 59 60 62 61 62 61 61 59 60 62 63 63 64
55 52 53 58 57 50 52 54 54 73 83 84 95 83 70 72 70 66 71 80 87 69 77 68 63 64 64 64 62 61 61 61 59 62 64 64 65 69
62 62 57 42 58 62 59 55 62 64 65 67 73 68 63 64 80 86 87 94 90 71 73 80 66 70 63 53 63 64 62 65 66 65 63 65 65 68
59 56 58 58 62 56 65 84 85 86 80 60 58 59 67 63 74 88 81 79 74 69 71 91 70 70 64 64 66 67 67 65 60 59 61 64 66 66
54 54 55 59 55 53 66 89 80 71 56 57 58 63 65 62 58 61 81 86 82 72 68 76 75 78 74 70 65 64 60 59 65 65 67 66 66 66
64 59 55 54 56 55 62 66 76 70 69 73 70 66 62 63 59 62 81 95 92 90 67 92 85 86 88 63 68 64 68 67 67 67 67 67 68 72
70 67 68 59 57 59 59 66 67 60 64 72 65 63 60 61 63 68 78 90 96 93 70 79 94 90 93 89 72 66 66 67 68 68 70 73 74 76
70 71 72 60 60 60 58 56 58 60 64 63 65 67 75 82 82 82 81 84 84 90 86 92 96 96 95 92 86 66 68 70 79 84 83 79 79 78
66 62 62 62 61 58 54 55 57 69 65 71 83 87 84 83 85 85 84 84 86 84 83 84 92 94 96 95 93 89 81 78 81 89 88 86 86 86
69 82 65 60 54 53 56 60 67 64 69 76 80 79 77 85 85 83 92 88 92 86 79 82 87 91 95 93 93 92 85 93 83 83 84 86 81 80
63 73 68 63 67 63 64 67 68 68 79 83 86 87 82 82 85 82 87 92 95 89 87 81 81 85 87 91 95 87 84 85 86 86 86 88 84 84
65 69 72 76 74 70 69 72 76 81 83 90 90 91 93 92 90 89 87 91 94 89 89 86 86 90 85 82 75 87 90 89 87 86 83 92 90 82
62 73 81 82 79 81 83 86 88 86 88 92 93 92 93 94 88 90 90 91 92 88 87 87 94 96 95 91 74 66 91 93 91 92 88 88 93 90
61 68 86 82 82 86 87 88 89 87 88 89 92 94 94 95 93 92 92 93 94 92 93 88 90 96 97 96 96 86 76 90 97 95 91 86 85 77
62 74 84 84 86 86 87 90 91 91 90 93 92 94 94 95 93 92 92 88 87 92 94 90 86 81 92 92 94 81 75 72 80 96 97 97 92 92
63 80 80 86 87 88 92 92 92 90 91 92 92 93 93 94 95 94 93 94 92 92 93 93 89 91 94 95 94 90 85 79 75 77 82 92 99 98
82 80 86 88 89 90 93 93 91 91 90 93 92 92 94 95 91 91 91 91 92 95 93 92 89 86 90 95 95 93 91 86 84 88 86 79 81 84

GFSNE_sfc_rhum_021.txt.gz
RH
48 51 55 58 59 60 62 63 66 73 61 62 57 49 53 53 53 47 48 51 53 53 54 56 56 54 54 55 55 56 60 66 64 65 67 68 65 66
49 48 51 57 58 62 63 62 64 70 68 58 55 58 54 46 50 50 55 52 55 60 60 56 54 54 54 54 56 56 61 60 66 68 70 70 69 70
46 50 52 54 60 63 62 61 62 68 70 61 60 62 67 65 60 56 54 56 63 61 56 55 54 53 55 56 57 58 59 61 65 65 70 70 69 69
44 53 56 46 57 59 62 60 65 68 76 71 72 70 69 69 61 65 60 57 62 54 55 53 54 56 57 59 60 59 59 60 65 68 65 63 63 66
50 53 54 57 61 64 62 66 73 59 78 80 77 70 70 70 76 75 80 64 50 53 53 56 58 62 64 62 61 61 60 62 62 61 61 64 66 66
54 55 56 58 60 63 61 68 66 79 84 84 82 84 79 72 84 76 71 68 60 46 53 59 64 64 62 62 63 63 63 64 65 63 63 66 68 68
54 51 52 57 52 54 56 73 78 84 90 94 92 85 86 76 72 71 70 63 63 67 69 72 71 63 64 65 63 65 67 66 64 63 65 66 68 69
62 60 58 60 57 52 50 51 54 78 94 89 93 81 78 74 77 67 73 81 87 69 84 72 67 68 66 66 66 65 64 66 66 66 67 66 66 66
65 64 60 46 62 64 63 56 60 60 61 71 83 80 78 67 79 86 91 96 86 73 75 79 69 72 65 57 65 66 68 68 67 65 64 66 65 66
64 62 62 64 67 63 69 82 81 85 84 74 74 70 71 68 78 78 73 78 73 68 68 86 69 71 65 67 68 68 68 67 65 62 62 65 67 65
62 64 65 67 60 57 68 88 82 79 60 60 60 64 66 63 61 67 84 88 85 72 65 77 73 79 74 71 66 67 62 62 64 67 67 68 67 66
69 67 65 59 58 58 66 76 84 75 72 76 76 70 62 68 63 67 82 94 94 92 68 91 83 83 89 66 67 66 68 68 68 68 67 67 68 67
74 70 69 63 60 60 60 68 67 58 66 67 63 63 63 65 68 72 80 93 95 94 72 79 95 90 92 91 74 68 68 68 69 68 69 71 72 74
71 73 76 65 62 61 60 56 57 61 61 63 67 72 80 86 86 84 84 88 88 92 85 90 96 95 95 92 86 68 69 71 78 84 85 80 78 76
69 66 65 65 61 62 59 58 59 70 68 75 79 86 86 87 88 88 87 86 88 86 85 86 92 93 96 94 92 88 82 77 81 87 92 89 86 85
68 83 66 59 58 59 62 63 67 67 75 80 82 79 77 86 86 85 90 87 92 86 79 82 89 92 96 94 93 92 84 93 84 84 85 84 82 82
65 74 69 66 71 66 66 68 69 70 82 84 87 82 80 83 86 84 87 91 95 90 87 81 82 86 89 93 95 87 86 86 86 86 88 91 85 84
62 65 72 78 78 71 73 74 76 83 86 90 90 91 92 92 90 88 87 92 94 89 89 86 87 90 86 82 82 92 90 90 87 87 88 95 92 83
63 76 86 86 83 84 88 90 91 88 90 93 93 93 93 93 88 91 89 91 91 88 87 87 96 96 95 91 72 66 94 94 90 90 88 90 95 89
66 72 88 85 84 89 91 91 91 90 90 91 93 94 94 95 93 92 91 94 94 92 93 87 90 96 97 96 96 84 76 94 97 95 94 88 86 78
67 81 85 88 89 90 91 93 94 93 91 93 92 93 94 95 93 91 92 88 90 93 94 90 86 80 92 94 94 81 76 72 79 92 95 97 92 88
67 81 82 88 92 94 94 94 93 91 92 93 92 94 93 94 94 93 91 94 92 91 92 90 88 90 95 96 93 90 85 78 73 74 76 86 99 98
84 85 90 93 94 95 95 94 93 93 92 94 93 92 93 94 91 92 93 92 93 95 93 92 88 85 87 89 87 90 87 84 82 84 82 75 77 78

GFSNE_sfc_rhum_024.txt.gz
RH
52 54 57 61 63 64 65 66 67 71 71 62 58 55 56 58 58 54 60 58 56 56 57 59 59 58 56 57 56 56 60 58 58 63 63 63 63 64
54 53 54 59 60 64 66 66 71 70 72 65 60 61 58 52 56 53 60 59 61 63 61 59 58 57 57 56 57 56 58 61 62 65 68 66 68 65
52 51 51 55 61 66 67 64 65 72 76 67 66 66 74 72 65 65 63 63 65 63 63 60 58 56 57 58 58 59 59 61 64 65 65 68 66 66
47 55 56 48 62 62 66 65 67 69 76 76 77 81 79 76 74 74 66 59 66 66 64 59 58 58 59 61 62 60 60 59 60 62 62 62 63 63
49 49 51 56 60 66 68 70 72 60 78 83 80 84 84 81 78 81 84 77 62 60 58 59 60 63 64 63 62 62 62 63 63 63 62 61 62 66
51 52 54 58 62 64 64 66 66 78 84 87 88 93 94 81 89 90 73 68 64 51 56 61 65 65 64 65 65 64 65 65 66 66 64 64 67 68
52 51 54 56 59 56 59 75 77 81 88 95 90 96 86 76 78 74 76 68 67 70 71 75 75 78 69 68 66 66 67 69 65 65 65 65 66 69
57 60 61 63 62 54 53 51 54 79 96 98 98 90 84 81 74 77 77 86 89 70 86 72 69 70 67 68 69 68 67 65 66 64 65 68 69 70
64 65 58 48 68 66 64 60 62 62 61 66 83 84 85 79 82 89 91 94 86 75 74 79 68 71 66 59 66 66 67 68 68 68 64 64 66 69
67 68 70 70 69 64 71 83 82 80 78 75 82 81 80 75 86 82 76 82 76 69 68 88 68 70 65 66 68 69 70 68 68 66 64 63 64 63
68 70 73 73 64 58 72 90 81 78 66 62 61 64 66 65 61 71 88 91 86 74 67 77 77 75 70 69 66 70 66 64 63 65 67 67 66 65
73 70 65 63 60 59 70 77 86 80 73 80 71 64 62 68 66 71 86 95 94 93 72 96 81 82 87 78 68 76 68 68 69 70 69 68 68 65
72 71 70 65 63 62 60 72 70 62 69 66 64 65 65 69 72 76 81 94 95 94 72 83 94 90 93 92 74 69 69 68 70 69 70 70 71 73
73 73 75 70 64 61 62 60 60 62 64 67 71 74 80 86 87 87 85 88 89 93 86 91 96 95 95 92 87 68 69 71 77 81 84 80 77 76
71 70 67 65 60 63 61 60 62 73 71 78 83 87 88 88 89 90 89 88 90 88 87 88 96 95 96 94 92 88 85 77 81 86 87 90 92 90
69 85 65 57 58 60 62 64 68 69 76 82 84 80 76 86 88 86 92 89 92 86 80 83 88 94 95 93 93 92 85 93 84 85 87 87 86 85
69 66 65 66 75 69 66 68 71 71 84 86 88 83 77 82 87 86 89 91 95 90 87 81 82 86 89 93 95 87 85 86 86 88 89 92 87 85
61 67 76 83 80 75 75 77 79 86 88 92 92 93 92 92 92 88 87 92 94 89 90 86 86 89 85 81 81 92 89 90 86 86 90 97 92 83
66 80 90 90 86 87 89 93 94 91 92 94 94 94 94 94 89 91 90 92 91 88 88 87 93 96 95 91 72 64 94 95 91 89 88 89 93 86
69 76 92 86 87 92 93 95 93 93 92 93 94 94 94 95 94 93 92 94 93 91 91 87 89 95 97 95 95 84 76 92 96 95 91 85 84 77
70 85 88 90 92 94 94 95 96 95 92 94 94 94 93 95 93 93 94 89 89 92 93 90 85 78 90 92 94 81 74 72 79 92 96 97 92 87
71 85 88 93 96 96 96 96 95 94 94 94 93 93 93 94 95 94 92 93 92 92 92 91 87 87 92 96 94 89 82 77 73 73 76 82 98 97
89 90 94 96 96 97 96 96 95 94 94 94 93 93 94 94 92 93 92 92 93 95 91 89 84 84 85 88 87 87 87 84 82 84 81 73 77 78

GFSNE_sfc_rhum_027.txt.gz
RH
50 51 61 64 65 66 66 66 64 67 69 61 58 58 59 60 62 61 63 61 61 62 62 62 61 60 59 59 58 57 58 58 60 58 61 63 67 65
52 50 55 62 65 68 70 69 70 68 70 65 61 63 60 53 63 62 66 62 64 65 61 61 61 60 60 58 58 58 58 58 60 62 65 65 66 65
50 53 51 58 66 69 71 67 69 73 75 68 69 66 72 73 69 72 71 71 71 66 65 64 63 61 60 59 59 59 59 60 66 66 68 66 67 64
56 61 56 50 63 65 65 66 68 71 74 76 79 81 82 79 81 82 67 60 68 66 68 64 62 60 61 61 61 62 64 66 63 60 61 61 60 63
46 49 52 58 61 66 69 72 72 60 77 84 82 86 88 87 87 85 87 85 65 63 62 62 62 64 65 63 61 62 62 63 62 62 64 64 62 61
54 53 52 56 62 62 64 68 66 76 82 87 86 94 95 88 94 92 76 69 69 56 60 64 67 65 64 65 67 67 66 66 67 66 66 64 62 66
52 50 54 57 59 63 64 75 79 83 88 95 92 98 95 88 82 77 81 76 74 73 74 77 81 74 72 69 67 67 68 70 70 68 65 64 63 68
58 56 60 59 62 57 57 56 58 84 95 98 98 98 93 86 82 82 84 90 88 74 85 74 72 68 66 67 69 69 69 68 67 67 62 66 66 69
59 61 56 51 69 68 66 60 65 62 62 75 85 86 86 80 84 90 91 94 86 73 77 81 68 70 66 59 67 67 67 68 68 68 65 64 62 66
64 69 72 74 73 70 73 85 83 82 77 73 83 81 83 78 85 94 86 84 78 72 75 88 67 71 65 66 70 69 69 69 68 68 67 64 63 64
66 72 75 77 68 60 73 90 83 79 65 62 61 64 67 65 62 71 90 94 88 75 68 77 78 75 68 68 64 69 66 65 64 64 65 65 64 65
73 68 65 63 60 61 76 81 87 81 75 80 74 64 63 68 66 73 91 96 94 92 73 95 80 83 91 78 73 75 65 68 69 70 70 68 68 66
70 69 68 64 66 64 61 75 73 66 71 70 67 67 68 71 74 78 82 96 96 94 72 81 96 90 93 91 75 68 67 67 69 69 71 71 71 73
72 72 74 71 67 63 63 62 61 65 67 70 73 76 82 88 88 88 86 89 90 94 86 91 96 96 95 92 87 66 68 71 76 79 82 80 78 77
71 70 68 65 62 63 63 61 64 77 73 80 85 89 89 90 91 91 90 89 91 90 88 89 95 94 96 94 92 88 85 77 80 86 87 89 90 88
69 90 63 58 59 62 63 64 69 71 77 83 85 82 79 88 89 88 93 89 92 86 82 84 89 93 95 93 93 92 85 93 85 85 87 87 86 86
78 64 65 69 78 72 69 69 73 73 86 88 90 86 81 85 88 86 90 92 95 91 88 82 83 86 88 94 95 86 84 86 85 87 90 91 86 86
64 69 78 85 83 77 77 78 80 88 90 93 94 94 94 94 92 89 90 94 94 90 90 86 87 90 84 80 80 92 90 90 87 87 89 96 91 83
68 83 92 91 86 89 91 95 95 92 94 96 96 95 95 94 91 93 92 93 92 89 89 88 94 96 95 90 70 62 92 95 94 94 88 88 92 86
71 78 94 88 90 94 95 96 95 94 94 95 96 95 95 96 94 93 93 94 93 90 90 86 90 94 97 95 95 82 75 92 96 94 90 85 84 76
74 87 90 92 94 96 96 96 96 96 94 95 94 95 94 96 94 93 93 89 90 91 93 90 85 78 88 94 94 80 73 70 76 91 96 96 92 87
75 91 91 95 97 97 96 96 95 95 95 95 94 93 93 94 94 93 92 94 91 91 91 88 86 87 92 96 94 90 84 76 72 73 75 83 97 97
92 92 95 96 96 97 96 96 95 95 95 95 94 93 94 94 90 91 93 92 92 93 92 92 85 85 85 86 89 90 92 90 82 83 81 72 77 85

GFSNE_sfc_rhum_030.txt.gz
RH
59 51 54 58 62 59 61 62 57 57 64 56 56 57 60 60 60 67 70 64 60 60 62 62 60 61 61 60 59 59 58 57 58 56 56 57 65 65
61 53 53 60 60 63 65 66 65 65 66 64 59 62 59 51 62 67 71 64 65 63 63 62 62 62 61 60 60 59 59 60 59 62 63 63 65 64
56 55 54 56 64 68 68 70 71 72 74 69 68 66 69 69 69 74 76 78 77 66 65 64 65 63 62 61 61 59 60 60 62 63 66 69 67 66
67 72 66 47 59 63 68 69 69 74 72 76 76 77 80 78 80 85 70 61 70 68 69 65 64 63 64 63 62 60 61 62 63 63 64 65 67 62
75 75 60 55 59 63 63 67 73 60 76 79 81 86 88 89 89 88 89 88 74 67 65 66 65 66 67 65 63 62 62 62 63 62 62 61 61 62
78 73 66 61 63 61 60 63 65 72 80 85 88 94 93 88 94 94 86 78 73 61 65 67 67 66 65 66 67 68 67 67 67 67 65 64 64 64
73 65 63 61 60 61 61 72 75 82 88 96 92 97 96 96 90 81 85 80 80 78 77 80 81 78 72 71 68 67 68 70 70 68 65 65 66 68
90 84 69 62 63 57 56 55 65 89 94 97 98 94 94 92 94 89 88 93 89 77 90 74 71 71 67 68 69 69 68 68 68 68 66 62 66 66
85 67 57 53 72 68 65 62 64 62 63 82 92 91 87 86 89 93 94 94 91 77 78 82 71 72 65 60 66 67 68 68 69 69 68 66 64 65
75 72 73 71 72 72 76 85 82 82 79 74 81 82 86 84 87 91 90 88 83 74 78 92 67 69 64 66 69 69 69 68 67 66 67 65 63 64
64 68 71 74 69 61 74 92 83 80 65 62 61 65 66 65 62 74 92 96 88 75 70 80 78 75 67 67 64 68 65 63 63 64 66 67 68 66
73 66 65 63 59 60 76 78 84 79 77 82 76 66 65 69 67 75 95 98 95 94 76 93 81 82 94 77 69 78 66 68 69 70 70 69 69 68
72 71 69 63 64 65 64 74 74 67 73 73 71 70 70 74 76 80 83 98 96 94 72 82 98 90 92 91 74 66 66 66 68 68 70 71 72 73
71 72 75 72 67 64 64 62 61 66 70 72 76 78 84 90 90 90 87 90 92 94 86 91 97 97 94 91 86 66 68 70 75 79 82 80 78 78
71 71 72 64 60 65 62 60 62 81 76 83 87 92 93 92 92 92 91 91 92 91 89 90 96 94 95 94 92 86 84 75 79 85 86 89 88 87
75 87 62 59 61 63 63 64 70 73 80 86 88 84 81 95 91 89 95 91 94 88 87 88 91 94 95 93 93 91 84 94 84 85 87 87 85 85
75 65 67 72 83 73 71 72 75 75 90 91 91 89 83 86 89 89 93 94 96 92 89 83 88 89 89 93 95 86 84 85 85 87 89 91 85 84
65 72 84 92 87 80 80 81 83 90 92 95 95 96 95 95 94 91 91 94 95 91 91 88 89 91 84 79 77 91 91 91 87 86 88 96 91 83
70 86 96 94 90 92 96 98 97 95 97 98 97 97 96 96 93 93 92 93 92 90 90 90 94 95 95 92 71 62 92 95 94 89 86 88 92 87
73 80 95 93 94 97 97 97 96 95 96 96 97 96 95 96 96 94 92 94 94 91 91 88 90 92 97 95 95 82 73 91 96 95 91 85 83 76
76 91 93 96 97 96 95 96 97 96 95 96 95 95 94 96 94 92 92 88 89 92 93 90 86 76 88 93 95 79 72 69 76 96 96 96 91 87
77 93 93 97 98 97 96 96 96 96 96 96 95 94 94 95 94 93 90 93 92 92 92 88 87 88 91 96 94 92 86 77 72 73 79 92 97 97
92 94 96 97 98 98 97 97 96 95 95 95 95 95 95 95 90 91 91 91 92 93 93 91 84 82 84 85 92 95 93 89 84 84 79 71 77 78

GFSNE_sfc_rhum_033.txt.gz
RH
66 65 56 58 55 58 54 48 45 40 38 44 39 40 39 38 40 41 46 57 62 60 60 60 60 61 62 61 60 60 59 58 58 59 59 58 57 58
64 58 59 60 59 62 60 59 54 49 40 41 39 40 40 35 42 45 47 63 60 62 61 60 62 62 62 61 61 60 60 60 60 59 64 63 65 68
56 57 58 61 65 68 67 65 63 58 49 46 43 42 43 43 43 46 50 49 47 60 63 62 65 64 63 63 62 62 61 60 61 62 64 68 66 68
70 78 80 69 83 81 77 73 72 66 60 52 49 47 49 49 52 54 50 47 48 55 65 67 65 64 65 64 64 63 62 60 61 61 60 61 60 62
81 81 78 76 81 84 84 80 82 75 79 61 51 55 56 55 55 56 58 56 52 60 62 64 65 66 68 66 64 64 64 64 64 64 64 63 62 61
83 84 83 82 79 84 94 96 91 82 72 64 62 64 62 57 62 65 61 52 50 47 57 63 66 64 65 66 67 68 68 69 69 68 67 65 64 63
90 91 92 90 88 92 84 84 79 82 78 81 69 68 67 62 62 58 61 56 59 60 57 53 52 52 53 60 62 66 67 70 70 70 68 66 66 68
94 96 97 99 96 90 83 74 78 89 86 78 78 67 65 65 60 62 67 76 78 51 58 56 54 54 51 50 61 67 68 67 67 68 67 65 64 64
98 97 92 86 92 88 86 74 64 61 61 64 71 68 65 59 75 85 80 81 75 60 60 66 52 54 49 46 62 65 67 68 69 69 68 67 65 63
95 92 90 90 84 69 60 72 68 66 63 62 63 61 62 63 72 84 76 69 60 55 55 76 50 51 47 48 61 65 68 68 66 66 66 65 64 64
86 70 64 60 60 58 62 81 69 64 58 61 61 64 66 65 61 60 77 80 75 58 51 60 56 54 51 52 48 60 63 63 63 64 65 66 68 67
58 56 61 55 57 59 64 77 70 61 60 64 59 55 54 53 66 59 73 92 88 83 53 71 61 61 74 46 46 47 51 61 66 69 69 69 69 66
59 57 55 62 66 67 63 60 61 54 61 56 52 50 54 56 57 60 68 87 92 89 60 75 85 79 82 80 56 50 52 55 55 56 65 68 70 72
60 57 60 72 67 62 58 60 59 61 53 52 57 59 66 75 76 76 76 81 78 92 82 89 94 88 92 88 79 55 56 59 66 71 76 75 76 76
61 66 68 62 60 59 60 58 59 55 57 64 68 77 77 78 87 85 86 83 86 87 88 91 94 93 93 92 88 81 78 68 73 82 84 81 80 78
71 62 59 56 61 57 55 53 55 56 65 69 70 67 66 79 80 77 85 80 86 78 78 88 92 94 94 88 91 88 81 92 78 79 82 82 78 76
68 53 50 53 58 56 57 58 60 62 74 74 75 74 70 74 78 77 83 86 89 86 83 77 81 84 87 93 95 84 78 80 82 85 87 87 81 79
53 53 58 63 65 65 68 69 69 77 76 82 84 85 87 88 87 85 84 87 90 86 87 83 85 88 82 78 80 88 82 85 84 86 86 94 88 80
53 61 68 71 75 78 81 84 86 81 89 88 91 92 92 92 91 88 86 87 89 84 86 87 93 95 95 90 69 61 88 89 87 86 84 84 89 85
59 63 73 75 78 84 86 86 85 83 84 87 90 92 94 94 92 91 89 92 92 89 90 86 89 92 97 94 94 82 74 91 95 92 88 82 82 75
61 68 71 77 82 86 87 89 91 90 91 91 91 93 92 94 92 90 91 88 87 89 92 88 85 75 88 91 94 79 72 71 79 98 95 95 89 82
63 71 73 79 84 88 89 89 89 88 88 90 90 92 91 92 94 92 88 92 88 88 90 87 84 89 94 93 92 86 80 72 71 74 79 93 98 95
73 75 78 84 87 89 89 88 88 90 89 92 92 92 93 94 88 88 89 88 89 91 88 90 88 83 86 84 84 84 83 80 76 81 79 72 78 82

GFSNE_sfc_rhum_036.txt.gz
RH
67 63 58 58 51 52 51 45 60 62 48 34 34 32 33 33 36 32 31 44 55 60 60 60 60 61 62 63 62 62 61 60 59 59 58 58 57 64
71 65 63 57 59 58 65 62 63 58 51 47 39 42 39 30 33 37 35 49 56 56 60 61 60 62 63 63 62 62 61 61 60 59 60 60 60 64
76 81 81 75 70 71 71 72 76 80 81 80 58 59 65 65 50 40 41 39 39 49 54 58 60 64 65 64 64 64 63 62 61 61 60 60 66 63
69 68 60 63 81 85 90 88 91 87 83 90 90 94 90 75 64 52 43 40 40 46 55 61 64 65 65 66 66 65 64 62 61 61 61 61 60 60
76 74 81 87 91 91 92 94 96 93 96 93 94 74 77 74 78 60 49 43 39 50 51 53 58 61 64 66 65 64 64 64 64 64 64 65 64 64
86 87 87 86 90 94 98 100 100 98 96 86 73 72 78 75 71 62 52 44 43 35 45 53 58 61 65 65 65 66 67 68 68 68 67 66 65 65
90 90 94 92 93 98 97 99 98 95 88 86 82 87 81 61 51 48 51 47 45 48 49 45 43 43 45 51 53 58 60 62 65 68 68 67 65 64
96 98 100 100 100 97 97 94 86 89 94 90 87 70 51 48 48 50 55 62 68 49 48 50 45 46 44 43 51 56 61 65 66 67 68 67 66 64
99 98 100 98 97 88 88 88 87 82 77 64 63 53 52 50 65 78 68 71 73 57 53 56 47 48 43 37 52 56 60 64 67 68 68 67 66 64
97 91 87 87 85 82 70 70 65 59 54 50 54 52 53 51 56 74 73 70 55 48 47 69 47 47 42 42 52 56 58 62 64 66 67 66 65 64
76 73 63 56 54 57 57 72 58 54 53 60 60 60 63 63 61 58 70 76 70 56 47 54 50 50 46 47 44 51 55 59 62 65 66 67 67 68
50 50 57 50 54 57 58 60 65 57 52 51 46 48 49 44 54 56 66 84 82 81 48 66 59 59 75 47 44 45 47 54 58 61 64 66 67 64
46 42 43 60 64 66 64 58 57 51 50 52 46 39 40 46 47 50 56 80 89 88 59 72 82 76 81 79 55 50 51 51 52 54 59 63 65 68
49 46 50 67 67 63 61 57 58 58 50 41 41 46 53 66 70 71 71 76 74 88 81 89 95 89 91 87 81 56 55 59 66 71 74 71 71 71
53 60 66 62 59 55 52 58 61 46 41 49 54 65 70 72 82 82 86 81 86 87 85 90 91 90 91 94 89 81 78 68 74 82 84 83 81 78
63 58 57 57 58 55 50 43 43 44 52 58 59 56 56 69 71 72 79 76 81 78 89 91 92 93 92 91 91 87 81 92 76 79 82 82 77 72
63 49 39 38 42 41 43 46 49 51 61 64 66 66 62 65 70 71 76 81 89 83 80 74 84 86 88 94 93 80 76 76 81 84 86 90 82 79
48 37 40 45 49 48 54 57 59 67 67 74 78 79 81 83 82 80 80 81 83 80 81 78 80 84 82 79 76 84 81 83 82 84 85 92 88 81
40 42 51 55 59 64 69 75 78 74 83 83 84 87 86 86 86 84 82 82 85 81 79 82 90 93 94 90 69 64 82 82 83 84 84 85 89 85
44 47 59 60 64 71 76 78 78 77 77 81 85 87 89 90 89 88 85 87 89 87 88 83 88 90 95 93 92 81 75 87 89 91 88 82 81 74
45 52 56 62 69 74 77 81 83 82 84 87 88 88 88 90 89 86 86 84 85 89 92 88 85 74 87 89 93 78 71 75 77 90 96 93 90 83
48 56 58 64 71 78 81 80 80 78 79 84 86 87 86 88 91 88 85 89 84 87 86 86 84 87 92 96 92 86 78 70 68 71 73 81 97 96
57 60 64 70 75 79 80 79 79 81 79 85 89 88 90 89 84 84 83 82 84 90 86 84 82 84 92 88 90 90 83 79 74 76 76 71 77 82

GFSNE_sfc_rhum_039.txt.gz
RH
83 80 76 75 70 66 65 67 70 77 67 44 48 41 43 43 44 39 38 38 44 53 58 59 60 61 61 62 62 64 63 62 61 60 59 58 58 55
88 85 81 74 76 76 76 70 76 79 83 69 62 60 56 42 51 55 51 54 50 53 54 55 57 59 61 61 62 63 62 61 61 60 60 57 57 56
89 86 84 86 95 96 96 96 96 94 90 86 83 81 80 83 83 79 72 60 50 53 51 54 57 59 60 62 63 63 63 63 62 62 61 59 58 57
87 89 89 82 88 90 92 94 91 92 92 96 97 99 99 99 98 90 71 52 54 53 60 63 62 61 61 63 64 64 64 64 63 62 62 61 60 60
84 82 82 87 94 93 93 95 97 95 98 96 98 97 95 94 84 73 69 64 54 54 51 50 48 52 58 62 63 64 64 64 64 64 64 64 64 64
87 87 87 88 93 95 98 100 100 98 98 94 97 98 88 76 86 83 76 66 55 39 42 47 52 55 58 59 58 59 62 64 65 66 66 66 65 65
92 92 93 91 90 92 94 99 99 97 94 98 96 88 82 76 77 67 63 59 58 56 57 57 58 58 54 53 53 54 54 55 58 62 64 65 65 65
98 99 100 98 98 91 92 95 97 99 100 93 86 79 71 63 56 62 70 77 79 62 66 64 59 58 55 54 52 53 55 58 60 64 65 66 64 64
99 99 100 99 99 99 96 95 92 82 74 78 77 67 60 59 83 89 80 81 76 65 66 70 58 59 55 44 51 53 55 57 60 62 64 66 66 64
99 99 98 98 93 79 72 78 74 71 68 58 64 62 64 63 67 76 79 80 69 62 62 75 59 59 54 53 53 54 56 57 59 62 64 66 66 64
91 83 71 60 63 62 63 83 70 64 50 60 59 59 61 61 62 71 84 85 80 68 60 70 66 65 59 60 57 55 53 54 56 60 61 63 65 65
51 54 54 54 53 55 64 64 72 66 63 60 56 54 53 57 51 60 80 90 86 89 68 87 77 77 91 66 64 63 63 59 58 58 61 61 62 63
48 46 50 59 64 64 66 67 66 61 60 58 59 55 48 52 57 62 66 91 88 86 71 80 97 93 87 86 70 66 66 67 66 62 62 64 64 67
54 52 57 66 67 65 65 58 59 58 60 56 48 48 64 82 86 79 78 79 79 88 83 88 97 93 93 92 89 70 70 70 75 78 82 75 72 71
59 66 64 62 59 55 45 54 58 58 50 52 57 79 86 89 92 89 82 86 89 87 86 88 94 93 96 94 92 86 83 78 79 85 89 90 89 84
56 67 60 60 50 52 51 44 48 48 55 64 68 66 67 85 83 80 81 76 86 79 85 87 91 95 96 93 94 91 83 94 82 82 85 85 82 80
63 57 47 39 45 44 46 50 54 56 69 74 73 73 70 75 78 78 78 83 90 86 83 79 83 89 93 97 96 86 82 82 82 85 86 89 88 85
57 45 41 48 52 49 53 59 66 71 73 77 81 84 87 89 85 82 82 88 92 87 84 80 79 84 85 83 81 93 88 89 84 82 83 91 89 82
47 46 54 60 64 69 77 78 81 78 86 89 90 92 92 86 85 89 88 91 91 83 82 84 90 92 96 92 76 66 84 84 84 84 84 86 89 85
43 49 65 66 69 77 78 80 80 79 84 84 85 86 88 94 93 92 91 93 88 85 87 86 87 88 95 94 93 83 74 86 88 88 90 84 82 74
46 57 60 68 74 80 80 79 85 82 82 84 86 90 91 93 93 90 91 84 85 92 90 86 85 74 84 87 94 83 74 75 78 86 86 86 88 85
49 60 65 72 78 84 87 85 86 86 86 88 86 85 87 92 94 92 90 92 89 88 89 85 80 83 90 95 92 86 83 75 73 74 73 76 90 96
61 64 71 77 83 86 87 88 87 88 87 89 90 89 89 94 90 92 91 89 89 89 86 87 82 83 87 89 92 92 88 87 76 76 75 70 72 75

GFSNE_sfc_rhum_042.txt.gz
RH
90 92 91 91 91 89 88 90 87 93 90 87 86 85 68 68 65 55 46 45 42 44 50 58 58 60 60 62 62 62 62 63 62 61 60 59 58 57
98 97 96 92 91 90 87 86 92 93 96 93 93 93 87 71 60 68 62 67 69 68 61 57 56 55 57 60 62 61 62 62 62 61 60 59 59 56
98 98 94 89 93 94 96 96 98 98 99 100 97 94 88 80 83 86 86 86 83 74 66 56 56 58 61 63 63 63 63 63 62 62 61 60 58 56
95 94 94 87 96 95 95 95 96 97 97 98 98 97 98 97 95 94 79 62 60 56 58 58 62 62 59 56 57 62 63 63 63 63 62 61 60 59
91 91 92 91 96 96 95 97 98 97 99 98 99 99 100 99 99 93 81 73 62 63 61 54 48 49 52 56 60 62 63 64 64 64 64 63 62 62
89 90 91 91 94 95 98 100 100 98 98 95 97 99 99 98 96 94 89 80 82 56 47 49 52 54 56 55 55 55 57 58 60 61 62 62 63 64
93 93 95 93 88 90 94 99 99 98 98 99 98 97 96 99 96 89 93 80 70 68 74 73 74 74 68 60 57 55 55 56 57 58 60 61 62 62
98 99 100 98 92 89 94 95 92 98 99 98 97 94 86 84 87 82 91 96 94 76 83 70 75 71 74 72 59 56 56 56 56 57 59 61 62 62
100 100 100 98 99 99 97 96 94 85 79 87 90 89 79 76 86 94 86 95 94 83 83 79 79 75 74 54 57 56 57 57 58 59 60 62 63 64
99 99 99 98 98 92 92 93 86 81 77 67 80 78 76 76 78 84 86 92 87 84 81 92 80 73 70 75 60 58 59 60 59 57 58 60 62 62
96 94 91 91 81 66 72 90 81 79 54 58 57 57 56 58 64 84 96 97 94 88 78 84 84 83 79 69 74 61 57 61 62 62 61 61 61 62
72 66 52 57 54 56 76 82 86 77 75 68 64 65 63 63 52 70 95 96 98 97 83 94 94 94 96 87 80 72 76 70 65 67 65 64 63 64
58 60 71 61 65 66 66 84 75 74 71 76 75 73 65 62 65 72 75 94 98 93 74 84 100 99 96 90 78 78 75 79 80 73 71 71 71 69
68 76 84 68 65 64 67 61 59 61 76 72 62 59 74 91 94 94 89 93 93 93 91 94 98 96 95 92 88 75 76 76 81 85 85 80 77 75
78 67 62 61 59 61 52 51 56 71 65 68 67 92 96 97 96 95 95 88 89 87 85 89 94 94 96 94 92 86 81 76 81 87 94 91 90 87
72 85 62 53 42 46 49 50 56 60 66 86 90 79 81 95 96 97 97 81 87 87 88 88 95 97 96 94 95 92 86 93 88 84 87 87 86 84
70 73 65 50 61 56 57 59 65 67 86 88 93 83 73 80 85 80 89 91 96 91 85 83 86 88 91 96 96 89 86 87 86 88 89 89 86 86
69 68 62 77 77 65 68 75 85 75 75 86 90 89 92 93 92 90 93 95 95 89 89 84 86 92 90 86 82 92 88 89 86 88 90 95 88 82
60 68 80 86 88 91 95 96 83 76 86 88 94 96 96 95 88 92 91 92 92 90 88 88 94 96 95 92 75 67 84 84 86 84 85 87 90 86
57 60 87 89 91 95 96 95 77 84 86 89 92 94 95 96 95 93 92 94 93 91 91 90 92 94 96 93 92 82 76 86 86 89 88 84 83 75
57 78 86 92 94 95 96 97 86 84 84 92 94 92 91 94 94 93 95 86 86 92 93 90 86 72 88 96 95 81 74 71 78 86 84 88 91 86
60 81 85 92 93 96 96 97 97 94 94 96 94 94 92 92 91 92 93 94 92 92 92 88 85 88 94 95 91 85 80 74 72 74 77 82 92 96
81 84 92 92 95 96 97 97 96 94 94 95 94 94 93 95 89 92 93 92 93 93 91 92 87 85 89 91 89 89 87 82 78 81 76 78 82 73

GFSNE_sfc_rhum_045.txt.gz
RH
96 94 94 92 93 92 94 94 82 91 91 89 90 90 90 86 84 86 91 88 84 81 76 72 64 64 65 62 62 62 62 62 62 62 61 60 59 58
98 98 98 97 96 97 96 95 97 92 96 94 96 97 95 92 92 93 92 88 84 79 74 74 70 70 67 59 60 61 62 62 62 61 60 60 59 58
98 98 98 96 97 97 97 98 98 98 97 99 96 97 97 97 98 93 92 91 89 78 76 80 76 62 59 60 62 63 63 62 62 61 60 60 59 56
95 95 95 89 94 94 96 97 98 98 98 99 98 99 99 96 95 96 89 82 86 77 76 70 62 60 63 60 57 55 57 61 62 62 61 61 59 58
92 93 93 92 96 97 97 98 99 99 100 98 99 100 100 99 99 96 92 86 70 69 66 63 59 52 52 53 56 58 60 62 62 63 60 62 61 61
91 92 91 92 95 97 99 100 100 99 99 98 99 98 98 99 99 98 98 83 81 62 60 52 52 55 56 58 57 56 58 59 59 60 60 61 62 62
96 94 95 90 88 90 94 100 99 98 98 99 98 98 98 98 97 93 92 89 76 76 74 74 76 74 72 65 62 58 57 58 60 59 59 59 60 60
98 99 99 99 94 91 93 90 93 99 100 99 98 97 97 87 87 90 88 96 92 81 80 74 76 77 78 82 66 62 60 58 58 58 59 60 61 59
100 100 99 98 99 99 98 97 96 93 83 88 86 86 82 77 88 95 87 95 91 82 84 88 82 80 80 62 62 60 59 59 59 60 61 62 62 62
99 98 98 99 96 95 94 94 91 82 76 69 81 82 82 80 81 85 85 91 87 85 86 98 85 80 74 80 66 61 60 60 59 59 62 64 64 63
98 93 90 91 74 58 76 88 82 78 56 61 60 56 55 56 62 88 96 97 94 90 83 90 87 88 84 85 80 60 63 63 64 65 66 67 67 66
85 70 54 64 60 61 88 86 89 82 81 77 71 68 65 67 54 70 96 97 98 97 84 96 96 96 96 84 84 80 84 71 67 67 69 70 70 76
65 68 77 63 65 66 65 84 80 76 72 80 79 77 63 62 68 74 78 93 98 97 82 87 98 95 94 97 86 83 83 84 83 78 74 73 73 74
73 84 86 65 62 61 62 58 54 62 76 75 65 61 75 91 95 95 89 96 94 91 89 93 98 96 96 91 89 77 81 80 90 87 94 81 77 73
77 71 62 59 58 60 54 50 51 66 64 72 74 94 97 97 97 96 95 92 93 91 85 92 94 94 96 94 92 89 87 87 85 90 93 97 93 89
69 82 64 59 45 46 51 52 57 62 66 86 92 80 85 96 96 97 98 97 98 96 92 93 96 97 96 95 94 93 88 95 88 86 89 88 88 88
70 69 66 54 65 59 60 65 74 75 90 90 97 89 71 75 83 86 88 93 97 94 91 85 85 87 89 95 96 88 87 85 83 86 91 92 86 85
71 69 71 82 82 67 71 76 84 87 85 78 88 87 91 93 94 92 95 96 95 92 92 89 90 92 89 86 82 91 87 84 83 86 90 96 89 80
67 73 84 88 91 95 96 97 97 91 91 92 94 96 96 96 85 94 93 93 94 92 91 91 94 96 95 93 76 61 84 83 87 86 85 84 89 85
57 64 87 87 92 95 96 97 96 94 82 82 91 89 93 95 94 92 90 93 94 92 92 92 95 95 96 92 92 81 71 86 87 88 88 84 83 75
61 80 85 91 93 94 94 96 98 96 93 94 97 98 96 99 94 94 92 83 86 94 94 90 86 74 88 93 95 83 75 68 75 85 85 88 85 79
62 83 85 93 95 96 95 96 97 96 96 95 97 96 96 97 96 94 90 93 91 91 91 87 86 90 94 95 91 86 81 74 70 69 74 78 90 95
82 84 91 93 96 96 97 97 96 95 96 95 96 94 96 96 92 91 92 90 91 91 90 91 87 87 91 92 89 90 86 84 80 81 78 69 74 75

GFSNE_sfc_rhum_048.txt.gz
RH
99 97 94 92 95 94 90 93 92 98 98 90 88 89 88 84 78 88 91 84 84 86 87 85 85 87 85 82 76 72 70 64 62 62 62 62 61 60
99 99 98 98 97 98 97 97 98 96 99 91 95 97 94 90 92 93 93 88 88 86 85 86 87 87 84 81 80 70 63 62 62 62 62 61 59 59
95 99 98 96 98 98 97 97 98 99 99 99 97 98 98 99 98 97 95 97 95 88 85 84 84 82 81 78 64 62 62 62 62 61 61 60 59 58
94 95 95 90 95 94 96 96 97 98 98 100 99 99 100 99 98 98 94 88 92 87 87 85 81 81 70 66 65 63 59 58 58 60 61 60 60 58
90 92 93 92 95 96 96 98 99 98 100 99 99 99 100 99 99 98 97 94 86 85 89 83 77 73 68 58 55 56 58 59 61 62 60 60 59 63
91 92 92 93 95 97 99 100 99 99 99 98 98 99 99 99 99 99 99 98 97 80 68 61 59 56 57 58 59 60 61 61 61 61 60 61 61 61
97 97 97 91 86 90 94 100 99 99 100 100 100 99 99 99 98 99 99 96 80 79 72 72 74 73 72 64 62 60 60 59 59 61 62 61 61 59
98 98 99 98 97 90 91 93 94 99 100 99 99 97 98 98 94 93 94 90 89 81 80 78 75 74 76 80 69 65 62 63 62 60 60 60 60 60
99 98 97 93 96 98 94 94 96 93 91 96 95 92 86 79 86 96 90 96 92 83 89 90 87 80 79 67 66 63 62 62 61 62 62 63 62 60
99 99 99 98 91 90 96 92 89 86 81 71 86 87 82 82 83 86 88 93 89 87 89 97 90 86 80 82 69 64 63 62 62 63 64 65 65 65
95 91 85 85 59 60 84 91 88 80 61 65 64 60 57 57 66 90 97 98 95 91 85 90 90 92 88 89 82 66 62 62 63 65 67 68 68 69
72 65 65 69 64 66 87 89 88 85 83 81 75 71 69 69 58 74 95 97 99 96 85 97 96 96 96 80 87 82 82 71 67 68 68 70 71 84
69 72 78 66 66 63 62 82 82 77 74 80 78 76 63 62 72 79 78 95 97 96 78 93 97 96 94 93 86 86 87 83 84 76 74 72 70 74
74 82 85 64 61 59 61 54 51 60 71 72 69 63 79 93 95 96 90 96 92 90 88 93 98 97 98 92 85 81 84 89 88 86 91 83 77 73
76 72 65 62 60 59 54 49 54 63 64 74 75 95 97 97 97 96 95 94 95 94 90 92 93 94 97 94 91 85 79 94 89 90 92 96 92 94
69 81 60 58 47 49 54 56 59 63 68 85 94 83 86 98 96 93 93 82 100 95 92 94 95 97 96 95 95 92 88 96 94 94 96 91 91 91
70 69 62 56 71 62 65 69 78 82 94 92 98 89 71 75 80 95 91 93 99 97 94 95 91 92 92 94 95 88 88 87 86 86 84 85 80 82
73 70 71 85 85 71 73 76 83 88 96 80 81 91 91 92 90 91 97 99 97 94 95 95 98 97 94 90 83 91 87 89 85 86 88 94 89 82
65 80 86 88 89 94 96 97 97 96 95 97 96 96 96 95 85 90 95 96 94 93 93 92 99 100 97 95 84 61 88 86 87 92 91 91 90 84
60 66 88 88 90 94 96 96 96 96 97 95 96 92 94 93 90 94 94 96 95 93 93 92 95 96 96 92 92 82 69 86 88 90 89 85 84 74
69 81 84 90 93 94 94 96 98 96 97 98 99 99 99 99 97 95 95 84 83 89 93 91 87 74 92 96 95 83 75 66 73 88 89 92 90 83
64 83 84 92 94 95 95 96 96 95 96 97 97 98 97 98 97 95 94 95 93 92 92 88 87 92 95 95 92 88 82 75 70 68 70 75 89 94
82 84 90 93 94 95 96 96 96 94 96 95 95 95 98 98 95 93 93 92 93 93 91 91 88 88 92 92 89 89 87 84 80 83 80 69 71 75

GFSNE_sfc_rhum_051.txt.gz
RH
99 99 99 97 97 96 96 94 94 99 98 92 88 89 91 93 86 88 92 87 82 80 80 86 86 86 85 84 80 80 83 82 83 82 75 65 62 62
97 99 99 98 98 98 98 98 98 99 99 92 92 95 95 92 90 94 94 90 85 81 84 84 86 86 84 81 83 80 81 83 81 77 72 66 62 61
94 96 95 94 97 97 97 97 98 99 100 99 96 96 96 98 98 97 96 98 96 86 86 84 85 85 86 83 81 82 80 72 69 67 65 63 62 60
92 93 93 89 94 94 95 96 96 98 99 99 99 99 100 99 99 98 97 92 95 90 87 86 85 82 82 82 77 71 68 68 64 61 60 60 60 60
92 93 93 92 94 96 96 98 99 96 100 100 100 99 99 98 99 97 97 97 91 90 89 88 85 84 83 82 78 71 62 58 59 60 62 62 60 60
95 96 96 93 94 96 99 100 99 99 99 98 98 99 100 100 99 100 100 99 99 94 91 87 82 69 67 63 60 60 62 62 64 63 63 62 61 61
97 97 97 93 84 89 94 100 99 99 99 100 100 100 99 98 98 100 99 99 98 95 79 73 70 69 70 64 62 59 60 62 63 62 61 61 62 61
98 98 96 95 94 86 86 83 91 97 100 98 98 96 97 97 97 97 98 94 92 81 80 74 74 74 77 79 70 64 64 63 61 63 64 62 59 60
98 98 94 92 91 94 82 79 78 74 78 95 94 93 90 86 91 96 91 96 92 84 89 94 90 85 84 69 67 65 64 64 64 64 63 61 60 61
100 99 98 96 90 93 89 89 89 80 84 73 88 88 86 85 84 86 89 93 90 88 92 99 92 88 82 83 72 67 65 64 64 64 64 62 63 65
89 82 77 81 64 74 84 90 88 81 65 68 67 64 62 62 66 92 94 98 95 90 87 92 92 93 90 91 84 71 66 62 62 63 65 66 68 69
67 67 69 72 64 64 86 88 89 87 85 82 75 71 68 67 56 80 96 97 99 96 83 97 95 95 97 79 85 83 83 70 66 68 68 67 69 86
70 77 78 67 63 61 61 79 78 77 74 77 76 74 62 67 79 89 81 94 98 97 76 94 99 93 88 92 84 85 85 81 84 79 73 73 72 73
73 77 83 70 61 58 56 54 54 64 64 66 67 68 86 95 95 96 88 97 93 90 89 96 99 98 98 91 86 81 86 88 94 86 89 82 78 73
77 72 64 59 64 63 52 51 56 64 64 75 74 95 97 97 97 96 95 95 97 95 90 97 98 96 97 95 94 90 83 92 86 89 91 95 95 97
68 82 61 53 50 52 55 58 64 68 73 86 96 86 89 98 96 89 95 85 84 95 91 95 98 99 97 96 95 93 88 96 97 98 98 93 88 87
73 72 62 57 72 63 66 71 78 81 95 93 98 86 73 77 81 81 89 93 97 98 94 94 92 94 95 96 96 87 84 84 84 89 93 92 81 77
76 77 73 82 85 66 71 75 82 86 97 97 95 91 92 92 92 90 94 100 97 94 95 96 98 98 95 92 84 92 89 88 88 91 93 96 91 84
61 78 86 89 87 88 94 97 97 95 97 98 98 98 97 94 85 87 86 98 95 94 94 98 100 100 96 96 88 62 94 91 91 92 90 92 92 86
64 68 87 86 89 94 95 96 95 95 97 96 98 98 98 98 96 96 95 97 96 94 94 94 96 96 96 95 94 83 67 85 89 90 89 85 84 76
78 85 85 90 92 94 94 95 97 96 97 98 99 99 98 100 98 96 96 87 86 90 94 91 88 76 91 97 96 84 77 68 73 88 89 94 91 85
70 84 84 91 94 95 95 95 96 94 96 96 96 97 96 98 98 96 95 96 94 93 93 89 89 97 98 95 92 89 84 77 71 70 71 76 91 93
78 82 90 93 94 95 96 96 95 94 95 96 97 96 97 99 95 94 94 93 93 93 92 93 90 91 92 93 91 90 87 85 82 85 81 71 72 76

GFSNE_sfc_rhum_054.txt.gz
RH
99 99 99 98 98 98 97 97 99 99 97 93 92 93 94 92 88 91 96 89 80 83 85 86 93 91 87 85 81 81 81 77 79 78 77 78 78 78
96 94 95 97 97 98 98 98 99 99 98 95 92 95 93 89 93 93 95 90 85 81 87 91 93 92 88 87 85 83 81 79 77 78 78 77 79 80
94 94 93 92 96 96 96 96 97 98 99 99 96 95 95 97 96 96 97 97 98 94 91 90 88 86 85 87 86 85 82 81 80 77 78 77 75 75
95 91 92 87 94 94 95 95 95 98 99 100 99 98 99 98 98 98 96 92 95 92 90 87 85 84 84 84 81 82 84 79 73 73 73 65 62 60
97 97 97 95 98 98 96 98 98 95 100 100 100 98 99 98 99 96 97 96 90 89 86 84 82 84 84 83 83 82 81 78 71 64 61 60 60 61
94 96 96 96 97 98 98 100 98 98 99 98 98 99 100 100 100 100 99 99 99 94 93 90 89 87 80 81 75 67 65 64 64 63 63 63 63 62
94 93 93 90 84 88 94 100 100 99 99 100 99 98 98 96 98 99 97 97 95 96 83 78 76 71 67 63 62 60 57 56 58 61 62 61 61 60
97 98 93 87 85 79 81 82 86 96 99 100 100 98 97 98 96 98 98 98 94 85 83 76 75 74 75 77 67 62 60 61 62 59 59 60 61 60
96 97 95 90 91 91 78 77 76 71 71 94 93 94 90 88 91 96 90 96 93 85 90 94 89 85 81 72 68 65 65 65 65 64 63 60 59 60
99 98 95 94 91 90 90 89 88 79 87 76 89 88 88 85 86 87 90 94 91 88 93 100 93 87 82 83 74 70 68 66 65 64 61 60 62 66
80 84 82 85 66 73 83 90 84 81 68 69 68 66 65 64 66 93 98 98 96 90 90 94 92 93 90 91 82 73 72 64 62 63 64 65 66 67
71 73 68 73 63 62 86 84 83 84 87 79 73 69 65 62 57 82 97 98 98 95 81 98 94 93 95 78 81 79 77 68 65 68 68 69 68 83
71 76 76 66 60 59 65 72 74 78 73 70 71 69 67 83 90 92 84 94 98 97 74 94 100 98 95 96 86 82 81 78 81 78 70 68 70 73
73 76 83 64 61 60 58 50 54 58 61 64 67 74 88 94 95 96 88 97 93 90 89 97 98 99 100 96 93 82 85 86 91 83 92 80 78 73
76 72 65 56 58 60 52 51 56 65 66 77 76 95 97 97 97 97 96 95 95 94 92 98 98 99 100 96 94 91 88 94 90 93 92 97 94 96
68 88 66 53 50 54 56 60 68 76 81 89 95 88 92 98 98 89 94 98 98 97 92 96 98 100 97 90 96 90 90 95 98 97 97 96 90 88
76 78 70 57 68 58 63 68 75 78 94 94 98 95 80 81 78 86 89 92 95 99 94 91 93 95 96 96 97 91 88 88 89 91 91 90 84 87
79 83 83 79 77 62 64 68 77 84 96 98 98 98 97 98 98 94 92 97 98 95 95 96 98 97 95 90 86 91 90 92 90 92 95 97 90 85
71 77 91 88 83 82 88 94 96 95 97 98 99 99 98 99 90 97 93 88 96 95 93 98 100 100 97 96 89 66 95 92 93 93 92 93 92 86
72 73 86 83 82 88 91 92 94 95 97 96 98 98 98 100 100 97 95 99 97 93 94 97 99 97 96 94 95 83 67 87 89 90 90 86 84 75
80 91 88 86 89 91 90 94 96 96 97 98 99 99 98 100 98 97 97 88 88 92 95 92 88 76 96 96 96 86 78 70 75 88 90 94 91 85
72 87 86 88 90 93 95 95 96 94 95 96 96 97 96 98 98 97 96 97 94 93 92 89 90 97 97 95 92 88 84 78 72 70 70 75 90 93
77 81 89 91 93 94 96 96 93 94 96 96 97 96 98 98 96 94 94 93 93 93 93 94 91 94 93 94 91 91 88 86 82 85 82 73 72 75

GFSNE_sfc_rhum_057.txt.gz
RH
98 98 98 97 95 97 94 92 97 96 95 86 86 76 84 84 83 74 74 81 81 78 78 78 85 91 90 83 91 89 88 86 82 79 77 79 77 78
89 85 87 88 91 94 94 94 96 96 99 89 93 89 87 83 88 84 83 89 88 84 81 80 92 90 92 92 91 89 86 82 78 79 78 77 78 75
84 83 85 86 90 89 89 88 89 92 98 98 90 86 84 87 87 88 88 91 92 90 92 91 90 89 86 82 82 84 82 79 79 79 83 81 77 78
80 82 84 79 83 83 84 85 88 91 93 99 94 92 93 90 92 90 90 86 89 88 86 87 85 84 83 82 81 80 78 78 80 80 78 80 82 76
81 79 81 80 84 85 85 88 89 88 92 95 97 91 92 91 91 89 95 92 89 89 87 86 86 82 81 83 83 80 82 82 82 82 80 77 76 69
91 88 82 81 84 87 90 94 95 92 92 89 93 94 94 93 94 95 90 96 96 88 84 82 81 81 79 77 77 73 69 71 74 75 72 66 64 64
86 84 85 87 84 83 85 91 91 93 95 92 90 85 81 80 90 83 78 74 73 67 60 57 57 58 58 58 57 59 59 58 57 58 59 61 62 60
91 89 80 79 78 74 78 76 78 85 97 95 85 76 76 69 63 67 68 66 67 59 57 51 52 50 49 48 58 62 60 58 58 59 59 58 60 60
96 97 86 78 79 80 72 72 72 71 71 71 70 70 66 63 74 79 72 72 63 56 61 56 54 49 44 45 63 67 64 63 63 63 63 62 61 60
86 86 88 87 84 75 73 73 69 70 68 64 66 66 67 66 69 76 70 72 62 58 62 67 54 51 51 52 69 71 69 67 66 64 62 59 62 65
69 68 66 66 64 68 66 72 58 64 65 68 66 64 63 63 60 68 74 76 59 56 58 64 57 61 55 54 53 66 70 70 65 61 63 65 63 64
55 56 65 63 60 68 66 56 60 62 68 57 47 47 50 51 63 57 72 80 76 70 57 74 64 64 73 50 52 52 52 61 64 67 70 66 68 62
55 57 61 65 59 56 67 51 58 61 60 47 45 46 56 61 63 65 66 82 85 80 57 77 90 76 76 75 56 52 54 54 54 55 62 67 67 66
58 59 64 59 56 60 54 48 60 50 44 47 50 52 62 70 73 75 74 79 74 86 75 88 92 88 88 84 76 56 57 59 63 66 69 71 72 72
60 64 62 56 52 51 50 51 54 49 51 57 61 71 75 76 87 85 86 83 83 82 81 91 91 89 91 88 84 78 77 65 70 79 79 79 76 71
62 68 63 54 49 49 47 50 53 57 66 70 68 66 69 82 78 75 77 74 82 77 82 84 91 95 91 86 87 88 80 90 72 72 78 78 72 69
68 69 63 56 49 44 46 50 54 55 66 72 73 70 65 68 72 70 73 76 84 82 79 73 76 80 84 92 90 77 72 72 77 82 83 82 75 72
70 70 69 61 58 49 48 48 51 58 62 73 76 80 82 83 81 79 80 82 82 80 81 76 79 81 76 74 84 80 74 78 79 81 83 90 87 76
68 69 65 61 59 59 62 68 68 66 81 79 82 85 86 86 82 81 80 82 83 80 80 81 87 92 94 92 65 71 92 85 81 79 78 82 90 83
70 70 72 66 64 67 69 70 70 69 73 76 82 86 89 90 89 87 84 87 85 83 86 85 91 92 95 91 89 74 66 84 84 85 84 76 78 73
65 71 73 73 74 74 73 76 80 77 79 84 86 90 90 92 90 88 87 84 83 86 92 88 85 76 93 92 92 79 72 69 75 88 87 88 85 78
56 64 66 73 76 79 79 79 79 79 82 84 85 88 88 91 93 91 86 90 86 88 90 88 84 88 92 92 90 85 75 66 65 69 70 76 90 91
64 65 68 73 78 80 81 80 81 84 84 89 90 90 92 94 88 88 88 86 87 89 86 88 83 84 90 90 90 89 88 84 75 79 76 70 72 74

GFSNE_sfc_rhum_060.txt.gz
RH
95 96 97 97 95 96 89 89 93 93 79 73 70 73 71 72 83 71 68 86 81 79 78 79 78 81 84 88 84 88 89 89 87 84 82 80 77 72
81 86 88 89 88 89 88 85 93 94 95 84 80 82 78 71 79 75 80 83 85 83 87 85 84 86 88 88 89 89 87 89 87 82 79 79 74 72
78 78 77 74 77 78 80 84 86 86 96 99 89 79 74 73 73 75 81 83 84 85 85 87 87 88 88 87 86 85 85 83 80 79 77 76 77 80
68 72 72 68 72 71 73 74 76 76 81 90 88 86 86 80 78 79 79 76 80 82 84 83 83 82 82 81 79 78 76 74 74 76 76 76 78 78
67 67 69 68 72 73 74 78 78 77 84 87 95 88 90 85 89 78 77 79 73 75 76 77 80 80 79 79 80 81 83 82 81 82 80 80 79 77
79 75 70 71 75 79 82 85 86 85 85 84 87 88 88 86 88 86 73 71 70 59 58 61 65 70 74 72 72 71 68 68 72 75 77 77 74 70
80 77 83 82 80 78 77 81 81 84 88 91 85 81 76 73 78 71 66 59 55 52 48 45 45 45 47 51 54 55 56 59 60 62 64 64 64 65
79 78 71 75 74 75 74 72 68 75 93 87 80 67 67 59 52 56 56 57 59 50 47 39 39 41 39 40 48 60 61 60 59 58 58 57 56 58
99 96 77 62 72 70 66 66 69 69 68 55 52 50 51 51 67 73 63 63 53 45 48 43 37 35 34 33 52 66 67 65 63 61 61 60 62 61
95 96 92 89 75 61 59 58 57 56 59 51 55 55 58 58 61 68 60 60 49 42 49 59 40 43 41 43 59 70 70 69 67 66 64 63 60 60
68 58 53 57 68 64 55 62 44 53 63 65 63 62 62 62 60 57 70 66 53 40 44 56 48 50 44 45 46 62 61 68 68 66 61 66 69 68
42 49 64 57 60 68 54 43 45 47 54 50 40 38 42 44 59 46 56 80 68 70 50 68 59 60 74 44 45 45 47 50 64 64 66 69 69 69
40 42 48 65 59 57 67 41 51 50 53 40 34 35 42 48 49 55 59 83 85 80 59 70 84 74 74 74 54 47 48 49 50 50 59 66 69 68
44 44 49 64 55 59 59 49 58 53 36 35 37 37 47 58 64 68 68 72 68 85 75 86 88 84 85 84 74 53 52 55 59 64 66 65 67 70
46 49 62 58 51 52 51 50 59 39 37 42 43 58 64 68 84 82 85 79 82 78 78 86 89 85 85 87 82 75 74 62 68 79 77 76 73 68
62 61 58 58 51 45 46 44 39 38 44 48 50 49 52 72 70 68 75 70 76 73 80 87 88 88 87 79 83 84 76 86 70 71 77 77 70 64
58 61 60 54 48 39 37 36 38 40 48 50 53 53 50 55 63 64 70 73 78 76 72 72 77 78 80 88 87 72 65 66 75 84 81 83 74 70
64 62 57 55 46 38 36 35 36 45 48 57 62 66 66 69 70 70 73 76 77 71 71 68 72 75 72 69 77 82 72 75 77 80 79 86 84 77
55 57 63 58 52 49 49 54 58 54 66 68 71 75 78 78 75 72 70 71 74 71 70 72 80 85 89 86 64 74 88 81 81 80 79 82 88 84
56 60 64 60 57 59 60 60 59 58 62 66 73 79 83 83 81 79 76 79 78 75 77 78 84 87 92 91 88 77 70 84 85 84 84 76 77 70
55 57 56 59 62 65 66 68 70 67 69 74 78 81 82 85 84 80 80 78 78 80 86 84 82 72 90 91 92 77 71 69 74 88 87 88 84 77
52 55 52 59 64 70 72 71 70 70 72 75 78 81 82 84 87 86 82 86 82 84 85 85 82 84 89 91 88 85 76 68 64 65 68 76 89 89
49 51 59 65 70 72 73 72 73 75 74 81 84 85 86 90 85 84 84 83 84 85 82 84 79 77 83 88 87 85 84 83 73 76 74 66 70 76

GFSNE_sfc_rhum_063.txt.gz
RH
95 95 97 96 97 98 98 95 94 97 90 81 78 74 75 77 84 75 78 81 77 77 80 84 80 79 82 84 87 86 85 85 84 85 84 81 79 75
86 89 90 93 92 94 96 97 97 96 96 88 88 82 79 71 77 76 78 81 80 81 83 86 89 90 88 89 87 87 86 86 86 85 81 79 78 74
80 82 79 76 84 82 86 85 87 90 93 99 90 81 79 78 77 76 79 80 84 84 83 83 84 85 87 87 85 84 84 84 84 83 83 80 77 76
70 74 72 68 75 75 79 79 82 84 89 90 93 93 89 83 80 80 76 74 81 78 81 81 82 82 82 82 80 78 76 73 71 72 72 71 72 72
66 68 68 69 77 78 82 85 86 82 90 97 100 94 91 90 87 80 77 82 70 66 64 69 74 78 79 78 78 77 80 82 81 82 79 77 75 74
76 72 71 74 78 83 84 86 84 86 87 91 93 96 91 88 88 87 84 79 76 52 55 58 58 65 70 71 70 68 68 68 70 74 75 76 76 74
77 78 84 84 80 78 81 82 82 89 95 93 93 91 83 80 82 80 81 73 68 65 64 59 56 58 60 48 53 53 60 62 62 62 64 66 67 67
79 78 75 79 73 71 72 74 72 81 95 96 87 78 77 73 62 72 74 84 84 65 63 58 54 58 53 51 49 54 60 61 60 60 59 58 58 57
100 99 77 64 77 75 65 60 69 67 66 68 65 64 63 66 84 88 81 84 75 65 64 65 52 54 53 41 54 62 66 66 65 63 61 60 59 60
99 100 98 94 79 67 66 67 64 64 66 54 67 68 69 69 71 75 76 76 68 63 63 84 57 61 60 60 59 66 67 69 69 66 65 63 63 61
79 63 58 64 70 62 64 71 52 60 65 62 59 59 59 60 62 74 89 89 80 53 61 72 69 69 64 63 65 61 59 57 66 67 65 62 66 69
51 58 62 62 60 66 67 54 54 55 62 62 56 52 50 49 54 62 79 94 92 92 72 89 85 79 95 66 62 66 67 52 54 61 67 67 67 72
46 49 54 63 58 57 64 58 62 61 60 56 45 45 50 58 61 67 71 94 96 95 80 86 92 94 94 94 76 70 70 68 73 70 57 59 66 68
51 50 53 63 57 58 64 58 52 62 50 44 44 44 59 76 82 84 81 88 90 93 90 93 97 94 88 87 92 77 78 81 86 89 92 74 69 66
51 48 54 61 54 55 57 55 57 59 45 48 50 74 84 90 93 93 94 89 87 89 87 94 92 92 94 90 89 89 86 92 84 90 95 96 95 95
60 73 66 63 56 52 50 55 58 46 50 58 64 57 62 90 90 89 93 90 87 88 87 92 90 90 91 93 93 91 89 94 94 94 95 94 91 86
60 66 70 69 64 54 50 45 46 47 62 64 66 64 57 71 80 88 90 92 93 91 92 94 91 92 90 93 96 88 85 83 84 88 93 81 79 89
69 70 70 67 64 52 45 43 45 52 65 76 82 86 84 88 88 89 91 92 91 88 92 91 93 93 89 81 77 90 87 87 88 89 78 90 83 84
71 68 72 76 75 70 69 75 77 76 84 87 90 92 93 94 86 90 88 88 88 88 89 93 95 95 96 95 85 64 92 92 93 91 89 89 90 86
64 64 73 76 75 77 80 78 79 80 80 83 89 93 95 95 94 92 90 91 90 90 89 94 95 94 91 90 93 85 74 92 93 91 90 85 82 71
60 66 70 74 78 81 82 85 86 84 86 91 92 93 92 93 93 91 90 78 81 89 91 90 88 72 94 96 96 87 78 71 76 88 89 92 89 80
58 65 66 71 77 80 83 83 84 82 85 89 88 89 89 91 93 92 88 91 87 88 88 84 85 89 94 96 91 88 82 75 70 68 69 76 90 93
68 66 70 72 79 81 83 83 82 84 84 87 88 89 91 92 86 88 87 83 90 91 87 89 84 87 92 91 88 91 88 84 80 84 80 68 70 76

GFSNE_sfc_rhum_066.txt.gz
RH
96 96 97 97 97 98 98 98 97 99 99 93 94 94 92 95 85 90 87 77 76 76 76 83 86 81 83 80 81 81 84 86 84 86 87 87 86 80
90 93 94 95 95 96 97 98 98 98 98 96 96 93 89 82 83 84 77 83 80 80 81 83 86 88 88 87 87 86 84 82 82 82 82 83 83 85
86 87 86 84 90 91 93 93 96 96 97 100 95 88 88 86 85 80 80 84 90 80 79 82 82 84 84 84 84 84 83 84 85 84 83 83 84 83
81 82 80 77 85 87 92 94 94 96 97 97 96 97 94 92 94 82 76 73 80 74 75 78 78 81 83 82 83 82 78 77 74 72 74 76 72 72
83 84 87 90 94 95 95 94 96 92 95 98 100 99 98 95 88 81 80 90 81 63 59 62 68 71 77 79 79 77 77 79 81 81 78 76 73 72
89 91 90 92 88 89 91 91 88 95 93 96 97 99 96 92 91 93 92 91 84 56 56 57 53 60 63 64 67 66 67 68 69 71 74 74 76 75
86 86 90 87 81 80 86 90 90 96 98 99 99 98 89 92 89 92 89 84 83 75 74 67 65 65 67 60 61 60 59 62 62 62 63 65 66 66
88 91 87 84 77 72 75 69 78 89 96 99 96 87 87 85 85 88 86 96 93 80 73 71 67 62 60 54 44 58 61 61 61 58 59 60 59 59
100 94 82 75 80 80 61 66 66 61 72 82 79 81 85 85 89 92 91 92 90 80 74 78 68 65 69 52 58 57 64 69 68 65 62 61 60 59
99 99 99 94 80 72 75 74 74 83 83 70 88 89 90 87 86 87 84 85 83 78 72 92 76 72 72 72 57 60 62 60 65 68 65 64 63 62
90 84 80 87 66 60 73 72 61 77 64 59 56 56 57 57 61 84 96 94 92 68 79 81 86 83 79 79 79 57 57 55 55 61 68 66 64 66
69 72 60 70 62 66 81 62 60 68 72 70 67 59 52 53 50 72 92 95 98 96 85 94 94 94 95 87 79 78 77 59 54 55 56 62 66 86
57 59 69 59 58 57 61 77 71 71 64 65 54 53 56 68 73 80 82 97 98 98 89 93 98 98 98 97 89 81 84 77 80 79 66 63 62 67
56 57 62 61 59 58 66 65 51 63 65 52 51 52 68 88 93 93 89 93 96 95 96 94 98 98 98 97 93 89 90 85 93 94 96 78 71 69
58 54 52 62 57 56 56 61 54 73 61 54 56 85 94 97 97 95 96 96 96 93 92 98 98 98 98 97 93 86 90 93 83 94 96 97 97 98
65 77 67 71 66 61 54 55 68 66 58 73 80 67 79 97 97 97 97 97 98 96 92 94 95 96 96 92 91 92 95 96 96 94 94 90 93 94
74 76 80 80 81 72 65 60 60 56 71 73 81 75 64 81 90 96 97 97 97 97 96 98 96 95 96 97 99 93 92 93 91 91 95 92 85 77
69 75 80 82 79 69 60 52 54 57 76 85 94 94 92 95 96 96 97 97 97 96 96 97 99 98 97 94 90 95 92 94 91 92 92 92 87 84
73 81 83 83 80 77 74 80 84 82 90 93 95 96 97 97 90 97 97 97 97 97 97 97 97 98 100 92 90 64 91 97 95 93 97 95 93 87
78 80 80 83 85 85 85 83 86 92 92 93 95 96 96 97 98 97 97 97 97 97 97 97 98 98 96 92 93 87 68 98 98 92 90 88 86 75
74 81 78 85 88 88 88 89 89 90 93 93 93 93 95 97 97 97 98 80 85 97 95 94 91 77 92 96 97 89 84 74 76 89 96 96 91 83
67 71 74 81 84 86 90 91 92 87 92 94 94 95 94 95 94 96 97 97 94 92 92 90 92 96 96 95 91 84 80 76 70 69 70 75 91 95
76 75 77 81 86 87 89 91 89 90 89 89 90 92 94 96 95 92 92 92 93 92 89 91 88 89 92 91 88 89 87 85 82 87 81 71 72 72

GFSNE_sfc_rhum_069.txt.gz
RH
96 96 97 98 98 98 99 98 96 97 99 94 94 90 92 89 86 86 84 76 81 78 76 81 88 89 87 84 83 83 83 80 82 85 86 85 83 80
95 95 96 96 95 96 98 98 99 98 98 96 96 92 88 81 83 85 84 83 81 80 81 82 84 87 88 88 87 87 86 85 84 85 85 84 83 82
91 92 89 89 93 92 92 93 95 96 98 100 96 90 87 85 83 84 82 86 89 76 78 79 82 84 85 86 85 84 82 81 83 83 83 84 84 85
87 87 83 81 87 89 91 92 92 96 96 99 98 97 95 92 92 84 79 77 83 71 70 74 76 76 81 82 83 84 83 81 78 76 77 79 77 72
82 83 84 87 92 94 95 94 94 93 96 98 100 99 98 94 91 85 81 91 85 62 57 58 61 69 73 77 78 78 76 79 80 80 79 77 75 73
93 93 93 93 94 94 92 92 90 95 93 96 98 100 96 93 93 94 92 89 84 57 56 58 57 60 57 65 63 66 67 67 68 70 73 72 75 75
89 88 90 89 82 82 88 92 91 96 99 100 99 98 96 94 92 93 88 86 84 77 73 66 67 67 70 63 62 56 56 57 59 62 63 64 66 67
91 89 86 85 78 76 72 74 80 90 94 98 98 91 91 86 88 88 88 97 93 84 75 69 71 64 63 62 47 55 58 63 61 59 59 59 60 60
96 91 84 80 82 80 66 67 62 69 77 86 79 80 82 84 89 93 91 94 90 84 74 67 75 70 74 58 57 57 64 66 70 67 63 60 60 59
99 94 94 90 82 78 78 80 85 84 80 71 84 90 88 88 86 87 85 87 86 79 75 90 82 77 77 76 58 57 59 58 57 66 65 64 63 62
96 92 90 80 60 58 72 73 71 80 59 60 62 59 59 58 67 82 96 94 90 72 83 81 89 91 86 89 77 60 56 53 52 56 61 67 67 67
84 77 68 82 70 64 76 64 62 71 73 69 64 59 54 53 52 73 88 95 98 96 86 94 93 95 92 85 87 85 82 63 60 56 59 59 60 86
65 70 72 63 62 61 71 66 67 70 67 65 56 55 56 66 73 81 86 95 99 98 90 91 99 98 98 98 87 85 89 86 86 80 71 69 64 70
58 61 65 61 63 62 67 67 54 64 66 55 52 50 64 82 93 92 87 95 96 93 95 95 98 98 99 99 96 87 90 91 96 95 96 77 74 69
59 58 63 62 60 58 55 61 61 78 66 55 54 81 87 92 97 97 97 98 98 96 93 98 97 100 98 100 99 98 90 93 88 98 98 98 97 97
63 69 61 70 70 68 59 55 69 75 66 67 70 62 79 99 96 96 97 98 100 98 92 95 97 97 100 98 98 90 90 98 97 96 95 91 94 95
83 78 79 81 82 77 71 64 64 65 73 68 70 68 62 78 90 98 97 98 98 98 97 95 97 97 96 96 98 96 96 97 96 95 98 95 89 94
80 76 78 80 82 76 70 63 59 58 68 79 84 88 89 93 94 97 98 97 97 97 98 97 99 95 93 94 92 95 94 97 96 96 96 100 95 94
72 82 82 84 84 85 82 81 79 74 83 84 87 89 93 96 91 97 98 98 97 98 98 98 98 99 100 97 90 72 98 98 98 95 98 99 96 89
70 76 87 86 86 88 89 85 82 86 82 82 90 92 94 95 96 98 98 98 99 98 98 98 100 99 98 96 95 83 70 97 98 92 91 89 86 76
72 78 83 86 87 86 87 89 88 86 88 90 90 90 93 95 94 96 98 84 88 97 97 98 93 79 93 96 98 88 83 72 77 92 96 96 91 85
75 79 81 83 85 87 89 89 89 87 93 91 89 91 92 93 93 93 94 96 96 95 93 93 95 97 97 96 92 87 80 74 70 68 69 75 92 96
74 74 78 83 89 94 94 94 90 91 90 91 93 92 94 95 94 92 93 93 94 95 93 92 91 95 94 94 88 90 88 87 83 86 82 71 72 73

GFSNE_sfc_rhum_072.txt.gz
RH
98 97 97 97 98 98 99 98 96 98 99 94 96 94 88 90 87 84 85 79 77 79 77 80 85 87 89 86 84 82 81 83 83 84 82 84 83 82
98 97 97 98 97 98 98 99 99 99 98 95 98 95 90 83 84 85 84 85 78 79 80 82 84 85 87 87 87 86 86 85 86 86 87 88 88 86
94 94 96 94 95 95 94 94 96 96 99 100 97 94 90 86 84 84 84 86 87 76 78 79 78 84 85 85 84 83 81 81 81 81 82 83 83 83
93 93 93 87 88 89 92 92 93 92 97 99 98 97 95 91 88 86 81 79 86 72 70 72 74 76 79 82 82 84 82 82 80 80 80 78 76 74
88 84 84 88 90 92 93 93 93 90 95 98 100 99 98 93 92 86 84 92 85 62 58 59 60 67 69 74 76 77 76 78 79 80 79 78 76 75
93 92 91 89 90 92 92 93 92 96 94 97 98 99 96 93 94 94 92 88 83 57 56 59 62 64 58 64 66 66 66 68 69 71 73 73 76 75
89 88 91 89 83 83 89 92 92 97 99 100 100 98 96 96 94 94 89 85 82 78 72 67 68 68 79 67 60 55 56 57 59 62 64 65 65 66
93 90 89 86 82 77 76 76 81 92 95 98 97 90 93 92 85 85 86 97 91 85 74 65 69 66 66 60 51 55 61 67 67 61 59 58 60 60
99 95 87 85 83 80 70 71 69 73 77 89 90 86 84 81 88 93 91 94 86 84 75 62 76 72 76 60 59 58 64 64 68 68 64 60 60 59
98 93 94 91 82 77 81 84 85 83 80 69 78 83 84 87 85 86 85 85 85 78 74 85 84 80 82 80 66 56 58 58 56 61 66 64 64 62
92 86 82 77 69 62 76 80 77 79 63 69 71 68 70 71 74 86 96 94 86 71 82 78 89 92 88 92 77 65 63 58 53 55 58 64 68 68
92 86 79 80 67 62 74 64 68 74 77 71 68 58 55 54 55 72 90 95 96 96 83 90 91 94 89 82 89 87 85 69 67 66 65 62 62 88
78 78 75 73 69 66 67 61 61 70 70 67 58 56 57 67 75 78 79 93 98 98 88 89 99 98 98 98 84 86 89 84 84 83 73 72 69 73
63 64 70 67 64 62 67 67 59 65 66 58 53 52 66 82 91 87 84 90 91 92 95 95 98 97 99 98 96 86 90 91 96 94 96 83 70 67
58 59 61 63 63 63 61 66 65 78 69 60 55 80 89 94 96 95 94 95 98 96 93 97 97 100 98 98 98 98 93 94 98 99 98 97 97 97
61 72 64 68 67 69 64 61 73 78 74 69 67 58 78 96 93 90 94 97 99 97 93 96 97 97 100 98 98 97 96 98 98 98 98 94 95 93
78 77 80 81 86 82 77 69 67 70 79 68 69 67 61 80 87 91 96 98 98 98 96 95 97 97 97 97 98 93 96 98 96 96 98 96 91 94
87 83 80 85 86 81 76 71 65 64 73 82 84 85 82 86 86 91 95 98 97 98 98 97 98 96 90 94 91 94 91 92 97 97 98 100 95 95
85 88 83 82 82 84 87 87 85 79 85 86 86 89 91 90 86 91 93 93 94 93 97 98 99 100 100 97 87 77 98 99 98 98 98 98 95 88
77 79 84 82 83 87 93 91 87 88 88 86 89 90 92 93 93 93 96 96 94 93 94 97 99 98 98 96 94 89 76 98 98 94 93 92 89 78
70 75 83 87 88 90 89 89 89 90 93 91 91 92 94 95 94 93 96 79 88 95 96 94 92 81 94 97 98 90 89 71 76 97 98 98 88 85
67 73 75 82 87 89 90 90 91 90 93 93 94 95 94 95 94 93 90 95 95 92 92 91 93 97 98 96 92 90 83 78 71 67 68 74 93 95
74 76 78 82 86 88 89 93 92 92 92 94 96 94 96 97 92 90 95 95 95 96 94 95 95 96 95 95 91 93 91 90 84 88 83 71 72 72

GFSNE_sfc_rhum_075.txt.gz
RH
97 98 99 98 97 98 94 96 99 96 96 97 98 93 94 90 89 86 86 78 76 78 76 82 83 83 87 88 87 87 87 85 82 81 80 85 85 81
98 98 97 97 98 98 99 98 99 99 96 96 98 96 92 87 88 86 88 85 78 76 77 80 82 85 85 86 86 85 84 84 85 84 84 83 80 83
95 96 95 96 98 98 96 95 98 98 99 100 97 95 94 92 89 86 85 86 86 74 76 77 76 79 83 86 86 85 83 82 81 84 86 86 87 86
94 95 95 91 94 93 94 93 93 92 98 99 98 98 96 90 88 86 82 78 84 74 70 69 72 78 81 81 82 83 84 84 84 83 81 78 77 78
91 93 90 92 92 91 93 93 94 90 95 98 100 99 98 94 93 86 87 94 75 62 61 62 64 64 72 73 73 75 76 77 79 80 80 81 78 75
92 92 88 89 90 91 93 93 93 96 95 97 98 100 97 93 93 92 95 88 82 56 57 60 63 69 64 64 62 62 62 64 69 71 73 75 77 75
89 87 89 88 84 85 90 92 92 97 99 100 99 98 96 94 92 96 91 83 80 77 71 66 68 65 79 72 62 57 58 59 59 62 64 66 67 68
93 92 92 90 85 80 78 78 83 93 96 100 99 92 90 92 89 85 84 92 83 85 73 64 69 65 64 60 56 56 64 70 69 64 60 59 60 61
99 98 90 86 82 86 74 77 76 75 78 89 88 90 92 86 89 92 87 89 83 83 77 61 76 70 74 62 65 58 63 62 65 68 64 60 60 60
100 98 96 88 84 81 82 84 84 81 80 70 81 83 84 86 84 84 84 84 83 78 74 85 82 76 80 77 72 56 58 58 56 60 67 64 64 64
91 83 76 79 67 64 78 84 81 83 74 74 74 74 73 73 80 86 96 94 83 71 80 75 84 84 83 87 77 69 66 61 54 57 58 63 67 71
88 82 73 76 68 60 73 72 78 80 75 68 68 62 56 56 63 74 92 96 97 96 81 91 85 87 83 77 86 86 85 72 71 70 68 67 64 88
84 87 85 75 73 65 67 68 61 67 72 68 60 57 57 67 76 76 79 93 97 97 86 86 97 95 96 95 80 85 89 83 84 83 70 69 68 74
75 78 82 72 73 70 71 65 57 65 76 61 53 51 65 80 88 90 85 92 91 92 90 92 97 97 98 95 93 83 90 90 96 94 95 80 67 66
64 62 62 62 67 67 64 70 63 76 67 61 56 78 86 88 93 94 96 93 94 91 90 94 96 99 98 97 97 98 92 93 97 98 98 97 97 98
63 75 65 67 70 71 68 65 78 81 75 70 66 58 80 95 91 90 91 89 93 92 90 95 96 96 99 98 98 98 98 98 98 98 98 97 93 91
76 78 81 81 88 86 79 72 68 73 86 75 72 68 65 86 91 94 90 95 97 96 91 91 95 95 96 97 99 96 95 98 96 98 97 97 94 93
87 84 84 86 87 83 79 78 75 70 81 90 90 91 85 90 93 95 94 97 95 93 95 93 93 95 95 91 91 95 94 91 97 98 98 100 97 95
92 89 89 86 82 83 88 90 88 84 90 88 90 92 92 94 83 89 93 94 95 93 94 94 97 100 100 92 81 78 97 99 98 99 98 98 95 87
79 91 94 89 85 86 89 89 90 92 88 87 91 92 93 94 96 96 96 96 97 97 98 97 98 98 97 95 95 90 75 99 99 98 98 93 89 79
76 81 88 88 87 88 88 92 92 92 92 92 91 90 93 94 92 92 94 81 87 97 95 94 94 85 94 98 98 88 85 73 79 97 98 98 89 89
70 75 81 86 87 91 92 90 92 90 93 92 90 92 93 93 92 91 93 95 91 95 94 94 97 98 98 97 93 89 82 77 70 66 67 75 94 96
75 77 80 86 88 90 91 90 90 90 90 91 92 93 94 96 91 89 90 90 94 96 95 96 96 96 94 95 92 93 91 88 87 90 83 72 72 72

GFSNE_sfc_rhum_078.txt.gz
RH
95 97 98 98 98 98 99 97 97 94 93 98 96 94 95 95 90 87 89 85 78 78 75 80 81 78 83 85 84 83 83 84 82 80 82 81 84 82
97 98 98 98 97 98 97 98 96 96 92 96 97 96 93 89 87 86 89 88 79 75 76 77 79 82 84 84 85 83 83 83 83 83 82 78 80 83
94 96 96 95 98 98 98 98 98 98 99 100 98 96 95 94 92 88 87 86 85 74 74 75 75 76 82 84 85 85 84 83 84 83 83 87 88 90
94 95 96 95 96 96 97 96 96 93 98 99 98 99 96 93 92 90 84 78 81 70 69 69 71 79 78 77 80 82 83 83 84 85 84 83 85 85
92 93 94 93 95 95 94 94 94 91 96 98 100 99 98 95 94 87 86 89 65 62 63 66 66 65 72 73 71 72 74 77 78 80 80 81 80 75
92 92 90 88 90 90 92 94 94 98 97 98 99 100 97 95 94 94 96 87 83 56 57 61 64 71 64 65 60 59 60 63 70 72 74 75 76 74
88 86 88 88 86 86 90 93 94 97 99 100 100 98 97 96 96 92 94 84 83 76 68 63 65 62 76 64 63 58 61 64 60 62 66 68 70 70
94 93 94 92 88 83 81 80 84 94 98 100 100 97 95 91 87 90 94 96 89 82 69 61 66 62 63 69 60 58 65 69 68 64 59 60 62 63
98 99 93 88 84 87 81 82 80 77 80 90 94 88 87 86 89 91 86 88 76 81 76 61 73 67 71 63 65 59 62 60 65 67 63 60 60 59
100 100 99 93 85 84 82 83 83 84 81 72 83 83 84 84 84 84 82 83 84 77 71 85 79 72 78 77 73 58 59 58 57 62 66 66 65 68
95 90 85 82 77 68 79 84 87 88 75 72 74 73 73 74 78 84 91 94 82 71 78 73 82 80 81 83 77 73 67 62 55 60 60 64 67 77
94 84 84 68 61 63 80 84 85 85 80 71 68 62 60 67 72 74 90 93 92 92 79 90 83 82 83 75 80 80 77 72 72 72 69 67 66 86
92 88 81 77 66 65 71 74 69 75 76 70 61 57 58 72 73 74 80 92 96 96 83 87 97 92 91 88 71 77 82 78 77 77 70 70 66 73
90 85 84 73 74 73 76 65 56 70 82 67 56 54 66 83 90 89 85 90 92 91 92 93 97 94 92 93 86 77 84 86 90 88 87 80 69 66
72 68 70 69 73 75 69 72 63 77 73 67 61 79 87 91 94 96 96 95 94 91 92 94 95 97 97 96 94 96 91 89 92 96 94 92 92 92
71 75 65 69 69 80 76 73 86 82 76 76 73 61 82 96 93 95 98 97 98 97 94 95 96 95 99 97 97 98 96 97 94 95 93 95 89 87
78 76 81 84 90 90 81 75 73 82 94 82 78 68 65 86 92 96 96 98 98 98 97 94 95 93 95 96 99 94 93 97 97 98 96 97 92 92
83 77 79 84 86 88 86 82 76 73 87 91 91 89 85 92 95 97 97 96 97 98 97 95 96 96 95 90 88 90 94 96 98 98 98 100 97 92
86 86 85 82 81 84 91 93 92 87 90 92 93 94 93 94 85 95 97 97 98 97 98 98 98 97 98 90 82 81 97 98 98 97 98 98 97 87
88 91 88 92 87 87 91 92 92 93 90 89 93 93 94 93 97 97 96 96 98 98 98 99 99 98 95 92 94 92 79 98 99 98 97 91 87 77
82 91 93 94 92 90 89 91 90 91 92 94 93 92 92 95 93 92 93 80 89 98 97 96 92 78 96 97 99 96 91 74 84 96 97 98 94 86
90 83 84 89 90 91 92 92 94 92 94 94 92 92 92 93 92 91 91 93 93 96 94 97 99 98 98 96 94 93 87 88 89 88 77 82 96 97
95 78 82 89 91 92 93 93 92 92 91 92 92 92 94 96 89 88 92 92 95 95 97 98 97 97 96 96 93 94 92 91 95 93 84 72 72 72

GFSNE_sfc_rhum_081.txt.gz
RH
83 83 83 85 88 89 93 88 80 84 80 77 85 79 79 84 85 81 81 84 81 79 78 79 80 80 79 82 82 81 82 83 79 81 82 82 81 80
85 85 88 86 88 89 90 87 90 88 90 84 90 87 84 83 84 81 86 86 78 78 78 77 77 82 83 83 82 82 82 83 82 81 85 78 78 80
84 87 86 84 86 87 89 91 95 94 92 98 93 92 93 92 88 84 90 85 88 80 74 74 75 79 81 82 83 84 84 84 84 84 86 86 88 84
83 86 84 83 84 84 86 88 89 87 92 96 94 97 94 92 92 90 86 79 78 76 70 68 73 78 76 76 79 81 82 82 83 85 84 84 86 84
81 82 85 84 84 84 83 85 84 84 89 95 99 95 93 91 92 88 86 87 61 68 67 71 66 69 72 69 67 69 73 76 78 80 82 81 80 80
81 80 79 78 80 83 86 88 90 93 92 94 97 98 94 93 92 94 94 84 74 47 55 58 62 72 66 62 58 60 62 64 71 73 75 76 77 73
79 76 79 83 85 83 86 89 90 94 98 100 98 97 96 94 94 89 92 83 69 59 53 48 47 47 62 56 59 60 65 65 60 64 68 70 72 71
81 83 87 90 87 84 83 82 83 91 97 98 98 94 91 90 85 88 86 84 83 63 55 50 47 45 46 56 59 60 64 68 67 61 60 63 65 66
97 98 93 86 86 89 84 83 79 77 80 84 92 88 85 83 86 88 78 73 67 65 56 50 51 47 52 48 65 59 61 60 66 65 59 58 59 59
100 100 98 96 87 83 78 70 66 67 64 61 73 75 72 73 72 76 70 72 67 60 58 65 52 50 53 53 71 59 59 58 58 67 64 65 65 66
93 89 86 85 81 77 67 72 66 72 70 73 71 71 73 73 68 66 77 85 77 56 59 52 57 56 56 58 65 71 65 62 57 61 64 67 73 78
84 81 84 76 80 73 63 61 64 63 66 67 66 59 66 71 69 62 74 86 74 72 59 68 62 60 66 62 63 64 62 71 73 70 68 67 70 65
90 86 81 84 67 64 72 60 59 60 68 56 50 46 50 60 58 58 70 86 86 80 65 75 85 77 78 74 60 62 63 61 60 60 66 67 65 68
85 80 80 84 75 69 75 67 60 65 68 58 52 45 48 59 69 71 70 76 75 86 78 88 91 86 85 80 74 59 60 65 69 68 70 71 66 65
77 78 80 74 74 74 77 74 61 67 65 61 53 58 63 66 83 86 88 84 84 84 88 92 91 91 85 79 75 72 70 67 74 81 78 76 72 69
69 67 65 67 72 78 78 73 73 65 60 58 55 50 61 77 74 77 79 80 82 80 87 90 90 89 89 82 84 79 78 85 77 78 80 78 71 66
77 66 65 66 69 77 76 71 74 75 76 67 63 54 52 65 71 77 78 83 78 78 81 86 88 86 86 90 87 75 68 75 80 84 84 82 74 71
76 67 65 67 71 74 76 70 65 70 76 82 78 73 67 74 77 84 84 81 80 76 78 80 85 85 80 75 82 75 74 77 79 82 84 89 79 73
89 74 72 69 72 78 80 82 78 75 84 80 85 86 83 80 73 80 82 81 82 77 77 81 87 88 84 73 58 78 83 83 82 79 80 81 85 80
98 83 84 77 74 77 80 81 80 80 81 80 84 87 89 86 83 81 82 83 80 79 83 89 91 91 87 79 76 72 78 88 88 84 84 76 75 73
98 94 96 89 84 84 84 86 85 84 85 87 87 88 87 87 83 79 79 74 77 83 85 85 85 76 88 88 92 79 73 72 80 90 90 89 83 72
97 96 97 92 90 91 91 90 88 86 87 88 84 88 86 86 84 80 75 78 74 82 83 83 84 92 95 94 89 84 74 69 70 77 82 86 89 91
96 97 97 98 91 92 92 90 88 88 86 88 89 89 88 90 81 77 78 76 76 82 81 83 87 88 89 90 90 88 88 83 75 80 77 74 74 76

GFSNE_sfc_rhum_084.txt.gz
RH
80 78 76 75 78 76 75 71 72 72 60 52 60 66 65 71 80 77 79 86 82 78 80 79 80 83 82 82 80 81 82 82 80 78 82 81 76 74
74 72 72 72 72 76 79 77 78 73 75 64 68 73 76 75 82 77 82 85 79 79 78 78 77 80 82 84 83 83 82 83 83 82 82 85 80 79
73 70 70 71 71 72 78 80 86 80 87 88 88 86 83 87 86 82 85 82 86 87 77 77 74 81 82 82 82 80 82 83 83 84 86 87 88 82
69 74 70 68 69 67 71 76 76 77 87 95 93 94 92 91 90 89 84 77 79 79 76 69 74 79 77 77 75 79 81 82 82 84 85 86 87 88
67 69 68 70 71 72 74 77 82 83 89 91 93 90 92 90 92 86 86 84 65 80 71 73 67 75 75 68 64 67 72 76 78 79 82 83 84 86
68 67 66 70 68 71 75 75 77 84 83 86 90 94 93 91 91 93 94 87 75 50 60 61 62 74 69 61 58 61 63 63 71 74 76 78 79 77
69 65 68 74 84 77 73 76 81 86 92 96 97 96 95 93 95 91 94 88 76 66 65 50 48 48 61 54 54 60 65 66 62 65 70 72 74 74
65 67 68 85 82 84 85 82 76 82 91 97 96 93 88 88 85 89 90 88 89 66 60 55 45 46 42 47 57 59 61 67 66 59 61 66 68 69
80 82 81 75 84 81 82 82 82 81 79 80 88 86 85 81 85 90 85 86 79 56 58 57 50 46 44 42 64 60 60 60 66 62 58 58 60 61
100 100 91 92 86 84 77 78 68 61 59 58 69 71 71 74 76 81 75 69 64 59 63 61 47 43 46 46 66 61 59 57 59 66 64 64 64 63
95 83 75 75 80 80 71 69 53 57 68 72 69 71 72 70 63 63 73 75 63 55 59 53 58 46 48 48 59 61 63 60 60 62 68 71 77 76
72 72 86 77 82 81 67 61 55 48 59 66 65 69 66 68 66 56 70 95 70 65 49 63 53 50 64 52 55 62 62 74 74 70 69 68 70 63
80 75 72 84 81 83 74 49 47 46 58 52 45 44 54 63 55 48 58 85 90 78 53 68 85 69 76 70 55 57 58 60 58 60 65 64 63 67
81 73 70 85 81 72 70 61 58 55 51 49 44 40 41 50 59 61 63 68 67 91 67 92 99 87 88 77 66 60 62 61 63 62 64 64 69 65
69 70 76 85 85 70 72 73 63 56 50 52 48 51 57 58 84 85 86 80 82 83 86 98 94 94 89 84 75 67 62 62 68 76 76 73 69 65
78 79 78 78 76 68 70 76 59 55 50 51 49 49 52 70 66 70 74 69 73 75 85 94 97 92 88 79 82 79 73 87 74 74 77 74 67 61
73 67 66 60 59 64 69 66 64 62 65 57 55 50 44 55 60 67 69 75 77 70 72 80 82 83 83 91 84 70 62 63 71 81 81 78 69 66
80 64 61 60 61 54 64 66 66 73 72 75 75 71 65 68 68 74 79 78 77 69 70 74 81 82 77 74 80 71 62 70 72 79 81 84 77 70
94 79 70 67 64 61 65 71 76 71 88 84 90 92 90 84 78 76 77 75 78 72 72 77 85 86 82 74 62 77 83 80 77 75 76 78 85 81
97 87 84 76 68 67 72 76 77 75 76 78 89 96 95 91 82 82 79 80 78 75 78 85 85 85 86 79 75 72 79 88 85 82 82 72 75 70
97 94 85 85 90 76 76 82 86 84 86 91 91 92 92 92 86 82 81 73 72 76 80 78 83 71 87 86 82 70 70 74 76 89 84 87 83 72
98 97 91 97 97 92 88 87 86 85 88 91 89 92 90 90 86 81 73 75 72 74 77 78 84 85 91 86 82 80 73 66 66 72 76 78 88 90
98 98 96 98 98 96 93 90 89 92 88 93 92 91 90 90 82 78 76 71 73 75 75 79 80 83 83 83 85 85 83 79 73 74 72 70 74 76

GFSNE_sfc_rhum_090.txt.gz
RH
97 96 97 96 91 90 86 83 84 86 87 80 93 91 93 96 89 87 95 87 85 84 83 81 79 79 78 79 81 81 80 79 77 74 74 76 76 78
98 96 92 91 92 93 94 92 92 90 90 82 97 94 90 89 87 89 92 88 82 80 80 80 78 78 80 81 82 80 81 81 80 75 74 77 80 86
94 91 90 91 95 97 96 95 95 95 97 96 97 95 95 94 91 94 92 90 91 84 79 77 77 80 78 78 77 78 81 79 79 80 79 80 84 85
91 91 89 86 94 94 96 96 96 95 93 93 97 98 97 97 95 94 86 78 83 82 80 74 74 80 76 73 71 71 72 77 78 80 80 80 86 88
86 88 88 89 92 93 94 96 96 91 92 98 100 98 98 96 97 92 90 88 70 82 75 75 70 74 75 66 63 63 66 67 73 77 79 80 83 87
87 88 87 88 89 91 92 94 93 96 96 98 98 99 98 97 97 98 98 93 86 59 67 68 71 72 69 62 59 63 65 66 66 70 75 77 79 82
87 85 87 87 85 86 92 94 92 94 97 99 98 99 99 99 99 98 98 97 90 80 73 72 71 72 79 64 58 61 61 64 66 62 70 73 75 78
84 84 87 88 84 82 84 84 89 91 94 99 100 99 98 96 96 98 98 99 99 85 82 80 69 74 73 74 55 58 59 62 67 62 62 67 70 72
89 88 88 83 89 93 86 83 82 81 84 90 96 97 96 95 96 98 97 97 96 82 83 85 67 77 69 61 62 59 58 60 66 62 58 61 64 65
92 93 92 95 94 94 94 97 94 90 84 78 91 92 92 91 89 91 93 92 81 72 76 84 77 76 79 77 60 63 59 58 63 65 64 64 64 69
99 95 95 95 90 84 92 96 93 83 66 64 73 73 75 76 82 92 98 93 92 86 85 78 76 78 76 78 81 65 62 60 61 69 68 74 75 74
96 90 92 92 85 85 93 93 92 82 87 91 90 84 81 80 72 88 95 96 94 93 85 88 80 79 89 81 93 91 93 68 72 70 72 71 70 84
97 97 93 83 79 84 83 84 84 73 80 93 93 93 93 88 82 83 91 97 96 97 82 96 98 96 98 95 84 89 86 89 90 85 67 64 62 73
95 90 91 86 80 82 84 74 70 68 86 87 78 83 94 97 92 93 86 93 97 94 83 97 99 96 98 98 94 82 86 86 89 90 93 68 66 64
86 85 84 86 87 84 87 82 65 75 80 80 75 84 90 93 96 97 98 96 98 96 96 99 100 99 99 98 96 95 96 89 97 96 98 97 96 97
89 91 85 85 86 90 91 90 80 74 78 80 76 80 97 98 98 98 98 98 98 99 98 98 99 97 98 98 97 98 98 96 98 98 98 98 92 88
94 96 97 97 98 98 94 92 83 78 79 81 81 83 85 93 95 96 97 98 97 99 98 98 96 96 98 96 98 98 98 98 98 97 96 98 98 93
98 97 98 97 98 98 94 93 86 80 83 81 83 81 85 90 92 96 97 97 97 97 98 99 99 98 97 93 88 97 98 96 98 97 98 98 98 93
98 97 98 96 95 95 94 91 93 85 83 80 86 83 86 90 80 89 98 98 97 97 97 98 99 98 98 95 97 81 96 98 98 98 98 98 98 96
98 98 98 96 91 89 86 88 89 90 86 85 87 88 87 85 94 92 93 93 95 95 97 98 97 97 94 93 95 97 84 97 97 98 98 98 92 78
98 98 98 96 82 84 83 88 93 89 89 90 91 93 91 89 88 92 93 84 86 93 92 94 91 80 98 96 92 93 93 85 88 96 96 96 89 94
98 98 97 97 97 97 98 98 87 86 90 92 93 94 93 90 89 90 90 89 85 88 91 96 96 98 98 96 95 92 97 96 81 77 78 82 94 99
98 98 98 98 99 98 98 98 89 87 87 89 89 91 92 94 88 87 87 87 88 91 93 97 96 97 98 97 95 97 96 95 97 92 93 74 74 77

GFSNE_sfc_rhum_093.txt.gz
RH
98 98 97 96 98 98 96 89 85 88 87 85 94 95 98 96 94 96 96 88 84 84 82 80 78 78 78 79 78 77 79 78 78 76 77 73 72 74
99 99 98 98 98 98 96 89 85 80 81 87 97 97 95 92 92 96 95 88 83 81 80 79 77 78 79 80 78 78 78 80 79 77 77 73 73 76
99 98 98 96 96 94 96 96 94 92 91 98 98 96 97 97 97 94 95 95 92 83 79 78 76 79 78 76 74 74 76 78 77 78 77 76 78 83
98 99 98 94 94 96 96 96 96 95 95 96 98 99 98 95 95 95 90 83 87 80 82 79 75 80 77 73 69 69 69 70 75 77 79 80 80 84
96 96 95 93 94 96 95 95 97 97 96 96 100 99 100 97 98 94 91 89 74 84 77 74 73 76 79 68 64 64 66 68 68 73 78 79 80 81
95 95 94 91 92 95 96 96 96 97 97 97 99 100 98 98 97 98 99 95 91 67 74 66 74 73 75 65 60 61 63 64 66 66 73 76 79 79
94 93 91 91 90 87 93 96 96 96 98 100 99 100 100 99 99 98 99 98 95 85 75 75 78 76 83 66 59 61 60 62 66 63 66 72 75 77
91 90 92 95 92 89 90 91 90 95 97 99 100 99 98 97 98 98 98 99 99 91 86 84 73 78 81 73 61 58 59 60 65 64 60 66 71 73
93 92 93 89 92 94 91 90 89 87 86 93 95 94 96 96 96 98 98 97 97 89 86 89 72 71 66 70 60 59 59 59 65 65 61 63 64 66
94 96 92 95 94 94 96 96 95 94 92 92 93 93 94 94 94 92 93 94 80 77 81 91 72 78 82 77 61 60 59 59 65 67 68 67 77 76
94 90 87 89 89 90 94 98 97 91 77 77 82 84 85 85 87 92 98 94 94 86 81 75 78 76 78 79 79 60 62 60 63 66 66 71 74 75
97 97 89 93 88 89 95 97 98 93 87 89 88 84 86 86 83 92 95 96 95 91 86 86 81 80 87 84 94 94 93 71 70 70 72 70 70 91
98 98 94 92 87 88 89 95 92 84 82 90 95 96 95 93 90 92 94 95 95 96 84 89 97 98 96 96 88 94 94 92 93 88 70 64 63 76
97 94 93 93 91 89 89 88 80 77 93 92 93 97 98 96 93 95 94 97 94 89 85 94 97 94 98 98 94 87 92 91 92 92 94 74 69 66
88 88 89 90 89 87 89 86 80 85 86 89 83 87 94 94 95 97 98 98 97 96 98 98 98 100 97 97 97 96 95 91 98 97 98 97 96 98
93 95 92 90 89 89 90 90 86 78 78 81 78 74 85 93 96 96 98 99 98 99 98 98 99 96 99 98 97 97 98 95 98 98 98 98 93 92
98 98 99 98 98 98 97 97 86 76 78 78 81 82 79 84 89 96 95 99 98 99 97 99 96 96 98 94 97 98 98 98 98 98 96 98 98 94
98 98 98 98 98 98 98 98 93 83 78 80 85 84 83 87 90 93 97 98 98 99 99 100 100 97 92 89 88 98 99 97 98 98 98 98 98 94
98 98 98 98 98 98 98 98 98 89 87 84 83 86 88 89 85 90 93 95 98 98 98 99 98 96 96 90 92 80 95 98 99 99 98 98 98 96
98 98 98 98 98 98 99 98 98 99 98 98 91 88 90 89 91 91 92 92 98 98 99 99 98 97 91 89 94 96 82 97 97 98 98 99 94 78
98 98 98 98 98 98 99 99 99 98 98 98 94 86 87 87 88 90 92 83 88 96 93 95 91 78 96 96 94 88 89 84 86 95 98 97 96 96
98 98 98 98 98 99 99 100 100 99 99 98 95 88 86 84 84 89 89 89 87 88 92 98 96 97 98 95 95 89 93 95 84 79 82 80 94 99
98 98 98 98 98 98 99 98 98 98 98 98 98 95 92 90 84 86 88 87 89 92 93 97 98 98 95 94 94 90 95 95 98 98 97 78 77 80

GFSNE_sfc_rhum_096.txt.gz
RH
98 98 97 97 98 97 94 86 86 98 95 89 96 97 98 98 95 96 96 89 86 85 84 81 80 78 78 78 78 78 77 77 76 74 72 72 75 71
99 99 98 98 98 99 98 98 95 92 94 92 98 98 97 96 96 97 96 91 85 81 82 80 77 78 79 79 77 77 77 76 75 76 75 77 73 76
99 98 98 99 98 99 99 97 94 87 86 99 98 98 98 98 99 97 96 97 96 82 79 79 78 77 78 76 73 72 73 76 75 77 78 77 75 75
97 98 98 99 98 98 98 97 95 96 94 96 99 100 98 97 97 97 93 92 96 84 83 81 79 78 79 74 69 68 68 69 70 73 76 78 77 75
95 98 96 98 98 98 97 98 98 97 95 96 100 99 100 99 99 94 93 92 83 80 82 78 76 78 79 74 66 64 64 63 68 70 72 77 78 78
98 97 96 98 96 97 98 97 97 97 98 96 100 100 99 99 98 99 100 97 92 70 79 74 74 76 76 71 63 60 62 61 64 64 66 74 77 77
99 98 98 97 98 96 97 97 96 96 99 100 100 100 99 99 98 99 99 98 96 90 84 88 86 83 81 71 63 62 60 59 63 64 61 69 73 75
96 97 97 99 97 95 94 92 88 94 96 98 100 99 98 98 99 99 99 100 99 97 95 93 83 85 80 85 65 60 59 59 62 65 61 65 68 70
95 96 97 97 96 95 94 95 94 92 88 88 95 96 97 96 97 99 98 98 97 96 94 94 80 81 73 64 62 60 60 58 62 66 62 63 67 74
96 96 95 96 96 96 97 99 98 96 94 93 90 92 92 94 89 93 95 94 84 87 87 95 84 75 73 71 64 59 61 59 64 67 68 74 77 74
94 95 91 92 91 92 95 98 98 95 85 88 88 87 86 87 91 96 99 97 95 85 83 79 77 76 78 76 76 64 63 61 63 63 63 69 74 76
98 96 90 88 88 91 94 96 98 96 90 92 92 91 90 91 88 92 94 98 96 94 86 85 79 77 84 80 91 94 93 75 67 70 70 69 73 92
98 98 94 89 88 92 89 91 91 88 85 93 96 97 96 96 98 96 94 94 96 96 85 85 96 97 92 96 89 95 95 94 95 90 74 66 64 79
97 94 93 92 94 93 93 89 86 84 93 92 94 98 98 98 94 96 95 95 94 90 84 90 94 95 98 98 94 91 95 93 94 94 95 79 71 69
95 91 92 94 94 95 93 92 88 92 90 89 85 90 96 95 95 97 98 96 96 95 93 97 95 97 96 97 97 98 95 91 98 98 98 97 96 98
92 97 94 94 94 94 94 95 95 88 87 84 83 87 95 95 96 96 99 98 98 98 97 97 99 95 100 98 97 98 98 95 99 98 98 98 94 92
92 99 99 99 99 99 98 97 96 90 86 85 83 80 82 88 87 97 96 98 97 99 96 98 96 94 97 95 98 96 98 98 98 98 96 98 98 94
91 99 98 98 98 98 98 98 97 91 87 84 86 82 80 89 90 95 97 96 97 97 99 98 99 96 93 88 84 98 99 97 98 98 98 98 97 94
96 99 98 98 98 98 98 98 99 98 98 97 98 97 88 88 86 89 88 89 96 98 98 99 98 95 95 82 95 80 95 98 98 99 99 98 97 97
98 98 98 98 98 98 98 98 98 99 99 98 98 98 98 95 92 91 90 87 88 98 99 100 97 95 87 84 93 97 80 95 97 97 99 99 93 79
98 94 98 98 98 98 98 99 99 99 99 98 98 97 97 97 91 90 92 84 86 93 96 96 91 75 97 95 92 92 94 79 84 94 97 98 97 98
95 98 97 98 98 99 99 98 98 99 99 98 98 97 97 96 94 92 89 88 86 88 86 97 97 97 98 93 93 87 96 92 86 80 80 79 94 98
89 97 98 98 100 99 99 98 98 98 98 98 98 97 96 96 84 83 87 84 88 92 95 99 99 97 96 95 89 91 93 96 92 96 97 80 80 79

GFSNE_sfc_rhum_099.txt.gz
RH
96 98 98 95 97 94 92 90 86 94 97 95 97 97 97 97 96 97 98 92 90 88 86 84 82 80 80 79 79 76 76 75 74 72 73 71 71 71
97 98 98 97 98 98 97 95 97 90 95 96 98 99 98 97 96 97 97 93 89 85 84 83 80 80 80 79 78 76 74 74 74 73 75 74 72 72
98 98 98 97 98 98 97 98 99 99 98 100 99 99 99 99 99 98 97 97 96 84 82 81 79 78 79 78 75 72 71 71 73 73 73 75 74 71
97 98 98 98 98 98 99 99 98 96 95 98 100 100 99 99 99 99 98 95 97 87 83 81 80 79 80 77 72 68 68 68 70 71 72 76 76 76
95 97 95 98 98 98 98 98 98 97 95 97 100 100 100 97 99 96 97 97 91 83 80 82 80 78 81 78 69 66 63 62 63 66 67 74 77 77
99 97 96 97 98 98 98 98 98 98 98 97 99 99 100 100 98 99 100 97 96 79 81 79 81 77 77 79 70 64 62 60 62 64 61 69 75 77
97 99 99 98 100 96 97 98 98 98 99 99 100 100 99 99 98 99 99 99 98 92 86 85 86 93 91 80 69 65 61 58 60 63 61 63 71 74
92 94 97 100 99 99 99 96 94 97 98 98 100 98 99 99 99 99 99 99 99 96 95 92 90 96 88 88 70 66 60 58 59 64 62 63 67 70
94 96 96 97 98 98 98 98 97 94 89 91 96 96 98 95 97 99 99 99 98 97 94 98 93 92 81 76 76 65 61 58 60 65 64 64 74 74
96 96 97 96 96 99 99 100 99 97 96 94 90 94 93 93 92 94 95 96 91 96 94 99 88 93 78 74 68 63 62 60 63 69 67 72 75 74
95 91 92 94 92 94 98 100 99 99 97 98 97 96 95 94 91 92 98 98 98 94 95 91 85 82 80 78 73 66 63 62 64 66 62 66 75 76
93 95 91 92 90 92 98 97 99 98 98 100 98 95 93 92 88 88 95 100 98 97 86 88 80 78 87 78 84 89 92 66 66 70 68 69 75 92
97 95 94 90 91 92 94 96 94 94 94 97 98 99 99 99 98 97 93 95 96 96 89 88 95 91 90 95 91 96 95 96 95 84 72 64 69 81
94 92 91 92 94 95 95 93 90 92 97 96 98 99 99 99 99 98 96 94 90 95 86 88 94 94 97 98 94 93 97 96 96 96 95 78 70 67
82 91 90 93 93 95 95 95 92 96 95 94 94 95 97 98 98 98 98 95 96 96 91 91 91 96 96 97 96 98 97 94 98 98 99 98 96 98
74 82 85 92 94 94 96 97 97 96 92 91 89 89 93 98 99 98 98 99 99 98 98 96 94 92 98 98 95 97 98 96 100 99 98 99 95 91
76 83 92 99 98 99 99 98 98 98 97 92 86 86 90 94 95 95 98 98 99 98 99 96 96 94 97 94 97 94 97 99 99 99 96 98 98 93
84 86 91 98 98 98 98 98 98 97 97 94 90 88 88 91 92 92 96 96 94 99 98 98 98 96 92 87 81 96 99 96 99 98 98 96 96 91
90 93 98 98 98 98 98 98 98 97 99 99 99 98 98 95 88 90 88 89 94 94 99 99 98 94 94 87 93 78 95 98 98 99 98 95 93 97
92 94 98 98 98 98 98 98 99 99 99 99 98 98 98 97 97 96 90 87 87 98 100 100 96 93 86 81 91 98 79 97 97 98 99 96 90 78
88 94 95 98 98 98 99 100 100 98 98 98 98 98 97 97 97 97 95 80 80 96 93 94 89 75 97 95 92 98 98 77 82 94 97 97 96 95
87 91 93 93 98 95 100 99 99 100 99 98 98 98 98 97 96 96 96 95 93 86 86 94 95 96 97 90 92 93 98 98 84 77 78 78 94 95
94 82 88 95 98 99 100 99 99 99 99 98 98 98 98 97 97 96 95 89 92 94 94 99 98 97 93 92 87 94 96 97 98 99 98 78 75 72

GFSNE_sfc_rhum_102.txt.gz
RH
99 99 98 97 98 97 96 95 94 94 90 97 97 96 98 95 95 97 97 94 91 88 88 87 85 83 82 80 80 79 76 74 71 68 70 70 69 71
97 98 97 95 96 97 96 95 95 93 93 94 97 99 97 98 98 98 98 97 93 89 87 86 84 83 82 81 80 78 74 72 71 72 71 70 72 70
97 97 96 94 97 98 98 97 98 98 98 99 99 99 99 98 99 99 98 98 96 88 85 83 82 82 81 80 78 75 72 70 71 71 70 69 71 71
98 98 97 97 98 97 98 98 98 97 98 99 99 100 99 98 98 98 99 98 98 88 84 83 82 82 82 80 76 73 70 68 68 70 69 71 75 75
98 98 95 97 98 98 98 98 98 99 99 99 100 99 100 99 99 99 99 99 97 91 84 83 83 82 82 81 75 72 68 64 63 64 63 67 73 76
91 95 97 98 98 97 98 98 98 99 98 96 99 99 100 99 98 98 99 97 98 87 87 89 84 82 81 82 77 72 66 62 62 64 62 60 70 75
88 89 94 97 100 99 99 97 98 98 98 99 100 100 99 99 97 98 98 98 97 94 96 96 91 91 89 81 80 72 67 62 61 62 61 58 66 71
94 91 91 95 95 97 99 99 99 98 98 98 98 97 97 96 97 98 99 99 99 96 95 96 88 93 91 93 75 72 66 62 60 62 62 60 66 73
97 96 94 90 94 95 94 97 99 99 94 92 95 94 96 93 94 98 99 99 99 99 96 99 90 94 96 87 78 74 67 64 60 65 64 64 73 70
98 96 96 94 93 95 96 98 98 98 98 98 93 90 91 91 91 91 96 98 97 98 95 99 95 97 85 81 78 74 67 64 62 69 70 71 70 74
70 94 96 94 88 90 97 99 98 98 98 97 95 94 96 94 94 96 99 98 100 99 98 96 88 85 80 78 77 68 66 65 65 70 66 67 75 76
80 71 79 86 90 91 97 98 98 98 99 100 100 99 97 97 95 90 96 100 99 98 96 92 82 80 88 76 78 84 88 66 65 68 67 72 75 87
77 83 83 84 87 89 93 98 97 95 97 99 99 99 99 98 99 98 95 98 98 98 94 90 93 87 90 92 89 91 94 92 93 80 69 66 74 79
70 70 80 83 86 88 91 93 95 94 99 99 99 99 99 99 99 99 98 96 94 94 90 90 95 93 95 98 93 96 98 97 96 97 94 77 68 68
64 68 71 75 76 84 88 93 95 99 98 99 98 98 99 99 99 98 96 94 95 94 90 86 90 95 94 94 95 99 99 98 98 98 98 98 94 95
68 74 72 73 76 80 94 95 97 98 97 98 97 98 98 99 99 98 98 95 97 100 94 89 92 89 96 98 96 98 99 98 100 98 97 98 92 88
76 83 85 72 85 93 97 98 98 99 98 98 96 95 97 98 98 97 96 96 98 98 99 97 93 93 95 92 95 96 97 99 98 98 96 98 97 93
83 95 91 88 96 93 98 98 98 98 98 98 96 95 96 98 98 97 97 95 98 98 98 98 97 97 94 89 82 96 98 98 99 97 96 96 96 93
79 82 91 91 93 95 97 98 98 98 100 99 98 98 98 98 98 96 97 97 97 98 98 97 98 95 95 92 93 77 96 99 98 99 97 96 92 96
76 83 89 93 89 93 96 98 98 99 99 100 99 98 98 97 97 97 97 97 96 95 99 99 95 93 88 85 94 98 79 97 96 96 99 98 93 78
82 85 89 95 95 92 97 98 99 99 100 99 99 98 98 98 97 96 96 95 95 91 92 96 91 75 97 95 95 98 98 75 82 93 97 97 98 98
87 90 92 95 98 95 98 98 98 99 99 99 99 98 98 98 97 96 96 96 96 93 90 92 96 95 96 89 96 99 94 98 79 77 76 78 92 94
91 89 97 92 96 95 97 98 98 98 99 99 99 99 98 98 97 97 96 97 96 96 94 96 95 97 93 88 87 98 99 96 97 99 96 74 73 77

GFSNE_sfc_rhum_105.txt.gz
RH
97 96 94 92 94 94 92 92 88 88 88 91 93 90 90 92 91 88 90 93 91 88 88 91 90 87 84 81 79 79 77 76 74 72 70 70 68 69
97 98 98 97 96 96 97 94 94 96 96 90 93 94 92 94 94 89 94 97 94 95 94 91 90 88 87 84 82 80 79 77 74 73 72 70 68 68
98 99 95 95 96 96 95 92 94 96 97 92 94 96 98 96 99 95 98 98 98 95 92 89 89 88 87 85 83 80 77 76 74 73 71 70 70 70
96 96 98 99 98 96 96 95 96 93 95 93 98 99 98 97 98 98 99 99 98 95 91 89 87 86 84 84 82 78 75 73 73 73 71 70 72 73
88 90 93 96 98 98 98 97 96 95 97 97 99 99 100 98 99 99 99 99 99 96 92 89 84 84 84 83 80 77 75 72 69 68 66 64 68 71
79 83 84 89 92 96 97 96 96 98 98 99 99 99 99 99 98 98 99 99 98 98 93 87 85 85 84 83 80 79 75 69 66 66 65 60 61 69
80 78 79 87 93 91 94 96 98 99 98 99 100 100 99 99 97 96 97 98 99 95 96 89 87 84 81 85 84 82 73 68 66 65 65 60 59 67
85 87 82 88 85 90 91 92 96 98 99 98 98 97 97 95 96 98 98 99 99 97 95 93 82 87 82 86 86 80 75 70 66 65 64 60 62 72
78 83 83 79 89 85 86 90 91 94 98 98 96 93 92 91 94 98 96 93 93 98 94 98 90 90 85 83 86 81 77 70 67 65 65 61 72 70
80 76 74 75 80 85 85 91 87 87 91 96 98 92 86 86 88 89 90 91 99 99 95 99 92 91 84 82 85 81 76 71 66 66 67 73 71 72
69 65 67 68 68 72 81 96 94 88 88 96 97 98 96 92 89 96 99 98 100 99 99 96 97 89 79 76 75 83 77 71 67 69 72 71 75 78
64 63 69 72 76 75 83 88 97 96 90 92 97 99 98 95 94 91 94 100 99 100 99 96 94 89 91 67 68 75 72 70 66 70 69 72 76 64
61 58 56 67 70 73 78 82 89 88 92 96 98 98 99 98 97 93 90 94 100 100 97 95 98 92 90 84 72 69 75 72 67 70 70 73 75 67
61 60 60 68 70 70 70 75 79 88 94 98 98 98 98 98 98 99 94 95 92 99 94 95 99 92 91 90 85 79 82 82 78 80 78 71 72 72
61 61 63 64 67 67 70 73 75 90 98 98 98 98 98 99 100 100 99 97 97 97 95 99 94 94 89 87 85 83 82 85 85 88 85 79 76 72
72 79 78 71 62 63 68 77 87 97 98 98 98 97 99 99 99 99 98 97 96 98 87 95 97 90 90 81 84 90 86 95 91 87 85 78 70 62
77 78 84 82 74 76 82 82 90 98 98 98 99 99 99 98 99 99 98 98 96 96 95 86 83 84 82 89 84 79 79 80 89 94 87 83 74 68
77 88 77 76 79 80 80 84 90 97 97 98 98 99 99 99 98 99 98 99 98 97 95 90 89 82 78 75 72 80 77 81 90 90 84 88 80 76
93 76 72 73 78 83 85 86 90 97 99 99 100 100 100 100 99 98 98 99 98 98 97 94 89 86 85 78 83 74 87 85 90 86 80 74 83 79
78 77 80 76 78 87 88 86 89 96 98 99 100 100 100 99 99 98 98 98 98 97 97 98 97 87 88 86 87 84 77 88 89 86 85 77 82 73
80 78 79 84 85 90 88 90 96 98 98 99 100 100 100 99 98 98 98 97 95 96 96 96 96 74 91 90 85 89 84 74 76 89 89 82 78 78
78 82 82 85 88 92 90 91 91 96 98 98 99 100 100 100 98 98 97 97 96 95 92 96 96 91 86 79 83 90 84 82 75 77 74 77 90 88
81 84 86 87 91 90 90 88 88 91 97 99 99 100 100 100 98 97 96 97 96 96 95 96 95 85 75 80 90 92 89 88 83 85 80 74 78 74

GFSNE_sfc_rhum_108.txt.gz
RH
94 94 94 90 88 86 87 90 92 93 79 61 82 77 83 89 92 94 93 92 90 86 86 86 88 92 92 89 84 82 80 79 78 76 75 73 72 70
93 97 96 93 96 96 95 92 92 92 92 71 86 88 92 93 95 94 93 92 90 86 87 94 94 92 90 89 87 85 83 81 78 76 74 73 72 71
87 92 92 93 97 94 94 93 96 96 97 87 87 90 94 96 98 97 94 94 91 92 95 95 94 93 91 90 88 87 83 81 78 76 74 73 71 71
83 88 91 88 94 94 98 96 96 97 98 97 89 96 96 91 92 97 97 96 93 97 97 95 94 94 92 91 89 87 85 81 78 76 74 73 73 73
67 75 78 86 91 93 94 96 96 94 94 94 90 99 99 99 100 99 99 99 98 99 97 96 94 93 91 90 89 86 84 80 77 76 74 72 70 71
63 66 68 74 77 81 86 91 92 97 98 98 99 100 99 99 99 98 99 99 99 99 98 96 94 93 91 88 87 86 84 80 74 71 69 67 65 64
46 51 64 78 89 85 83 83 84 93 98 98 99 100 99 99 98 98 98 98 99 99 99 99 97 93 89 88 86 88 83 77 73 70 68 68 64 62
47 49 51 66 65 75 79 86 88 91 89 98 98 97 95 93 94 98 97 99 99 99 98 99 95 94 84 82 85 84 82 77 73 71 69 66 62 64
58 57 53 47 66 58 68 74 78 82 86 87 94 96 93 92 93 98 96 93 91 97 95 98 98 98 88 79 91 88 83 79 76 72 69 66 63 73
56 53 51 49 51 60 58 63 67 69 73 74 84 87 90 89 91 89 90 91 98 99 92 98 98 98 96 87 91 89 86 81 76 72 69 67 73 72
48 45 47 49 56 69 64 78 68 68 66 75 80 90 93 94 96 94 99 99 100 99 97 97 99 100 98 97 90 88 86 83 78 72 69 70 75 78
44 43 52 52 64 67 63 60 71 68 69 74 74 77 79 85 96 96 95 98 97 100 98 95 98 96 100 95 89 94 91 85 78 72 70 74 75 69
46 46 45 59 63 66 67 64 69 64 69 71 79 81 83 87 93 98 94 95 100 99 95 92 100 99 99 95 92 88 93 86 78 69 72 74 76 65
53 48 51 62 63 63 62 64 64 64 68 75 80 80 89 98 98 98 96 94 90 94 94 90 100 97 97 96 96 91 88 81 78 74 78 74 76 71
55 61 68 68 69 64 61 60 62 67 78 79 88 87 86 93 99 100 100 100 100 99 96 99 98 99 96 98 93 92 96 90 85 89 88 84 81 78
59 64 70 75 66 63 59 61 64 73 82 94 97 97 90 100 99 99 100 99 100 98 95 100 100 99 98 93 90 92 87 98 89 88 88 83 74 67
72 67 71 69 66 64 63 64 68 74 77 91 97 97 97 98 98 99 98 99 98 96 97 96 96 98 96 92 95 85 85 84 89 91 89 89 77 66
73 76 83 70 66 65 67 72 71 70 72 86 96 97 98 99 99 99 100 99 99 98 98 96 97 97 97 93 82 81 83 86 87 92 86 93 88 74
81 78 70 64 66 70 71 76 81 75 84 93 98 98 99 99 100 99 100 100 100 98 98 97 98 98 98 94 79 76 89 90 90 89 85 84 92 87
70 73 77 70 69 74 79 81 81 84 86 92 98 98 99 100 100 100 100 100 99 98 98 98 99 100 99 98 90 82 81 91 91 89 91 79 80 72
72 77 71 73 75 78 80 89 89 86 85 90 96 98 99 100 100 100 100 100 98 98 97 97 98 99 98 97 96 87 80 78 80 91 90 86 79 70
66 72 74 74 78 82 86 86 86 84 85 88 91 98 98 100 100 100 100 100 97 96 97 98 98 98 100 100 92 89 84 80 79 78 77 83 91 88
72 75 79 79 80 83 86 86 83 84 83 86 94 96 98 100 99 100 100 99 99 98 96 97 97 98 97 96 94 93 93 90 84 81 78 77 73 72

GFSNE_sfc_rhum_111.txt.gz
RH
93 94 94 94 92 93 94 92 93 95 90 72 70 79 79 82 90 91 90 96 95 94 90 88 89 88 86 90 87 88 95 89 81 80 79 77 74 72
90 87 86 91 92 92 96 92 92 95 95 94 90 97 94 96 94 90 91 95 94 93 91 89 91 90 88 90 93 94 90 87 84 80 78 76 74 73
82 86 84 85 90 93 94 93 96 97 98 90 84 94 98 96 97 96 94 95 94 94 93 93 92 88 88 93 96 94 92 89 84 79 76 75 74 72
66 73 78 79 89 90 92 93 94 96 97 95 89 100 98 98 96 98 98 97 96 94 95 92 89 86 90 95 96 94 92 92 87 81 77 76 74 73
53 61 65 69 79 84 87 92 94 92 95 98 98 99 98 99 100 99 98 97 97 95 94 94 91 90 94 97 96 95 94 91 87 85 82 78 75 73
47 50 51 64 72 80 80 84 84 89 92 95 96 99 99 99 99 99 99 99 98 99 98 96 95 96 97 97 96 96 93 90 86 82 80 78 74 69
45 41 48 64 74 77 74 82 83 87 90 91 96 99 99 99 99 99 98 98 99 99 99 99 98 98 98 96 96 96 94 89 85 80 76 74 71 67
51 53 52 60 56 61 65 71 72 80 87 87 91 91 90 98 98 99 99 99 99 98 99 99 98 98 98 96 94 93 91 88 84 78 74 72 71 66
60 61 55 42 62 51 58 64 64 66 68 74 87 85 93 90 93 99 99 98 96 97 97 98 99 99 95 92 92 92 90 87 83 79 76 73 70 66
61 57 54 52 55 62 65 66 64 60 62 62 68 74 82 84 89 93 96 94 98 99 96 98 99 98 98 95 94 92 90 87 84 81 77 74 71 68
46 43 44 47 51 63 63 71 64 64 58 65 70 71 71 78 78 92 98 100 99 99 98 98 100 99 99 100 97 91 90 88 86 82 78 74 71 76
44 42 51 48 55 61 62 59 65 62 65 66 66 69 68 70 76 82 95 99 98 100 98 99 99 99 100 99 100 97 95 91 88 82 77 74 75 92
53 50 45 51 57 61 61 63 66 59 62 63 68 71 72 72 74 82 87 97 100 99 96 96 100 100 100 99 100 98 97 96 93 86 77 75 78 83
59 53 53 61 65 66 66 64 63 63 65 71 78 81 81 83 79 81 83 92 93 98 96 94 100 97 100 99 98 99 98 96 95 93 87 78 77 76
58 63 67 64 64 66 67 62 60 68 75 79 81 84 87 88 89 93 96 99 99 99 99 96 99 100 99 98 98 98 98 98 95 93 90 90 90 92
67 71 66 68 64 63 64 62 64 70 73 78 82 84 80 85 91 93 99 95 99 99 99 100 100 100 100 99 95 98 94 99 97 94 93 91 93 89
72 74 78 75 79 78 70 68 70 73 78 78 77 79 83 87 90 97 98 98 99 99 99 99 100 99 100 100 100 94 96 98 94 98 94 95 92 89
71 78 81 79 79 74 74 74 74 73 78 80 82 84 91 96 93 96 99 98 98 98 99 99 98 99 100 100 98 96 96 97 97 97 91 94 94 87
81 80 78 78 78 76 77 78 79 78 82 86 87 87 90 97 97 97 98 98 98 98 99 97 98 99 98 97 98 92 96 97 98 98 92 89 91 88
74 74 76 77 81 78 79 80 80 81 87 83 85 87 89 95 98 98 98 99 98 99 99 97 99 99 98 96 97 98 97 98 97 96 94 97 91 74
65 69 71 74 77 77 79 83 85 85 82 83 84 85 88 96 97 98 98 98 98 99 98 98 98 100 99 98 97 98 99 100 96 92 92 90 94 95
65 71 73 75 79 82 84 85 86 86 86 86 85 86 87 96 96 98 99 99 98 99 99 99 99 99 100 98 96 97 98 99 99 87 77 83 88 94
80 76 77 80 82 85 88 90 90 89 87 90 87 88 91 94 95 98 98 99 99 99 98 98 98 100 99 96 94 96 97 97 96 94 94 71 73 77

GFSNE_sfc_rhum_114.txt.gz
RH
94 92 91 90 90 92 95 95 98 97 94 79 78 65 59 82 88 92 94 97 94 92 90 89 92 90 88 88 86 86 87 89 92 93 83 82 78 74
85 86 87 87 89 92 94 92 93 97 98 88 84 83 86 89 94 95 95 98 97 94 94 95 94 93 92 91 90 90 91 88 96 89 82 81 79 75
72 76 76 80 88 91 90 89 91 94 97 92 90 96 99 98 99 98 98 97 97 96 95 96 96 95 92 91 91 91 92 93 94 90 84 82 78 76
67 71 70 67 82 82 86 90 91 92 95 96 90 92 96 97 96 98 98 98 97 97 96 95 94 94 92 91 91 92 95 94 91 91 89 82 78 76
56 60 63 70 79 77 87 86 88 85 92 95 94 94 96 99 99 99 99 98 98 99 98 97 96 96 95 94 91 93 95 94 94 94 91 86 81 77
56 60 58 64 67 72 81 83 82 87 88 91 91 92 99 98 99 99 99 99 98 99 98 97 94 96 96 94 93 94 96 96 95 92 91 88 85 80
55 54 59 67 71 63 61 80 83 86 89 89 90 87 88 92 97 98 99 97 98 99 98 97 97 96 95 95 94 98 97 96 95 92 89 85 84 78
63 66 65 68 63 55 60 68 69 78 82 87 85 86 85 91 91 94 97 100 99 97 99 98 99 99 99 98 97 97 97 96 95 92 89 84 79 75
73 74 68 50 70 69 68 66 66 63 62 74 83 79 82 74 83 90 92 98 98 95 99 99 100 99 99 99 98 97 97 96 93 91 88 84 79 76
76 73 72 69 65 61 72 77 75 71 69 64 77 79 77 74 77 81 87 87 91 98 99 100 99 99 99 99 97 97 96 94 92 88 85 83 81 76
60 57 58 60 55 54 71 82 71 66 54 57 59 61 63 65 68 77 91 95 92 98 99 100 99 100 100 100 98 96 94 93 90 88 86 83 81 75
64 59 59 54 52 54 66 78 82 79 73 72 68 68 67 72 69 80 91 98 95 96 96 100 99 99 100 99 99 98 96 93 91 88 85 84 82 85
71 67 61 59 57 60 64 71 80 68 73 83 82 80 77 83 85 85 90 88 92 89 89 100 100 100 100 99 99 99 97 97 95 91 86 85 82 86
70 68 70 67 66 65 64 65 64 66 81 88 92 91 93 91 90 88 85 89 90 91 87 96 100 99 100 100 99 99 99 97 96 97 94 84 80 83
65 67 70 74 73 70 70 64 63 80 89 92 88 92 94 93 92 90 85 82 80 92 93 94 100 100 99 99 98 99 98 99 97 98 97 96 93 91
70 79 82 74 69 68 70 76 81 85 87 86 85 87 90 92 91 86 88 94 90 88 86 98 100 100 100 98 97 99 96 100 98 97 96 95 93 90
66 75 85 88 86 84 85 86 85 87 86 87 87 87 84 82 83 83 85 92 96 92 97 97 99 98 98 100 100 95 96 98 96 97 97 98 96 92
69 81 85 89 86 86 88 89 89 84 88 87 90 93 92 91 89 86 95 90 95 89 97 98 99 99 100 99 97 98 96 96 97 97 93 97 98 96
80 92 94 88 86 84 91 94 90 89 92 94 89 96 91 92 87 88 89 91 95 96 95 99 99 98 98 98 99 96 97 97 98 98 96 93 94 97
76 77 78 78 79 87 92 89 86 92 94 87 94 92 90 90 90 92 93 94 96 96 97 99 98 98 98 95 98 98 97 98 97 97 98 100 95 85
72 75 74 78 82 84 85 86 87 88 88 88 89 88 89 91 92 92 96 88 95 98 98 95 94 89 100 99 98 99 99 95 90 98 98 95 96 98
69 77 86 88 88 86 86 88 92 90 92 92 92 93 95 91 95 96 92 96 96 98 98 98 99 99 99 97 96 97 98 99 100 99 96 95 93 97
74 76 79 84 87 90 88 88 89 90 90 90 89 93 93 95 94 92 95 96 97 98 98 99 99 99 99 97 93 97 98 98 98 98 98 100 100 80

GFSNE_sfc_rhum_117.txt.gz
RH
91 89 87 86 88 90 93 93 97 98 95 93 90 82 73 83 83 82 86 90 92 94 92 91 91 93 89 87 85 82 80 82 88 93 94 91 90 86
80 78 82 85 87 91 88 87 91 95 96 89 94 87 86 89 86 88 83 95 96 95 96 96 94 94 95 94 92 93 92 95 93 92 91 92 90 88
75 76 73 73 88 84 84 90 89 92 94 88 87 86 88 88 89 93 96 95 92 97 93 94 95 96 98 99 98 96 94 95 92 91 93 92 91 85
61 70 69 62 80 78 84 86 86 88 92 91 84 87 88 90 93 93 95 98 99 99 98 98 97 98 98 98 98 97 96 95 93 94 94 91 87 87
61 64 67 70 72 76 84 86 87 78 88 92 90 88 90 90 94 94 97 96 98 100 99 99 99 99 98 98 97 96 95 94 94 95 94 92 91 89
64 66 65 69 70 80 72 80 82 89 89 91 90 90 89 85 90 94 93 93 95 94 97 98 99 99 99 98 98 98 98 96 94 96 96 95 92 90
65 65 66 72 71 59 64 84 83 88 88 89 89 88 86 89 89 88 91 90 90 98 98 98 98 98 96 96 97 97 97 95 96 96 96 94 94 92
74 71 70 71 64 56 63 64 66 77 84 90 90 90 88 86 85 89 90 93 98 96 95 95 99 98 95 94 95 97 96 97 97 96 97 96 95 93
83 80 72 55 71 70 64 61 64 59 60 77 87 85 85 80 85 88 89 93 91 83 86 92 95 97 96 98 99 98 97 98 98 97 96 96 95 92
84 79 75 74 71 67 74 78 78 77 74 67 77 81 84 76 77 79 84 87 87 86 85 98 94 98 99 98 98 99 99 98 97 97 96 95 93 90
73 66 66 65 63 59 68 80 79 77 64 65 66 66 63 63 66 78 88 94 87 84 92 95 98 99 99 99 99 98 98 98 97 96 95 93 92 92
65 65 66 63 61 60 67 77 88 86 87 85 84 75 73 78 70 86 92 98 96 88 91 98 99 100 99 98 99 99 98 98 96 95 93 92 90 85
72 72 68 66 66 65 66 76 82 79 76 88 84 88 87 88 91 91 94 95 92 93 88 87 100 96 100 99 99 99 99 98 98 97 93 91 88 84
71 70 75 69 66 70 71 71 68 66 80 83 89 92 91 91 92 93 93 91 88 91 82 87 96 98 99 98 98 98 99 98 97 98 97 92 89 84
63 66 67 68 72 74 71 66 63 84 87 90 92 92 92 90 92 97 92 90 89 86 77 85 94 92 96 96 98 99 100 99 98 98 98 97 96 95
78 86 82 70 70 71 73 77 83 92 92 93 92 91 90 98 95 95 92 87 88 89 86 88 94 97 95 92 96 98 97 100 99 98 97 96 95 94
70 82 88 92 89 88 86 84 86 92 92 92 94 91 88 85 89 93 90 90 92 93 88 82 85 93 97 100 98 97 96 96 99 98 98 98 98 96
72 89 86 90 89 95 94 94 94 88 94 92 96 98 92 92 95 90 93 90 91 87 87 86 87 96 98 98 97 97 96 94 97 98 97 100 99 98
74 78 81 83 83 82 81 89 89 89 92 96 99 96 93 94 92 92 91 91 88 89 89 85 97 98 98 97 93 94 99 98 98 98 97 95 96 98
75 77 81 80 79 81 86 89 87 91 96 96 96 96 97 96 93 93 92 92 92 92 90 87 95 98 98 94 88 96 96 99 98 98 99 100 99 87
72 75 75 78 86 89 90 91 90 88 88 93 98 97 93 93 92 94 92 85 83 89 92 89 86 75 100 100 99 98 98 98 90 99 100 98 98 99
72 76 76 79 82 86 88 89 91 89 90 93 92 94 92 92 94 95 92 94 93 91 91 88 93 99 99 98 96 92 99 99 97 94 92 88 93 97
78 80 84 85 87 90 93 93 92 92 92 92 94 92 93 95 90 90 91 93 95 95 94 95 96 97 98 98 97 98 98 98 99 99 99 99 94 85

GFSNE_sfc_rhum_120.txt.gz
RH
89 91 88 88 91 86 86 89 93 95 94 93 94 82 77 80 82 84 87 88 88 86 84 81 84 87 89 87 76 82 85 86 82 87 88 93 88 86
84 84 84 83 92 85 89 88 90 89 92 90 86 83 80 77 76 83 84 92 93 90 89 89 94 95 95 96 95 92 90 89 88 78 79 78 79 90
71 76 77 76 87 83 88 90 88 92 91 86 85 81 83 84 86 87 88 90 90 96 97 95 94 94 94 95 92 96 98 95 93 85 81 80 85 92
76 77 79 70 84 83 86 88 86 86 88 88 82 87 84 86 87 83 88 86 91 88 92 94 98 98 97 95 95 97 99 99 98 97 92 83 89 92
74 76 75 76 81 84 88 86 92 82 91 94 91 87 88 86 88 87 83 85 78 84 84 91 93 97 99 99 99 99 99 99 99 98 97 95 93 93
72 75 74 76 79 84 74 87 81 89 86 90 91 91 89 86 86 86 84 80 83 69 90 92 92 95 96 96 99 100 100 100 99 98 97 97 97 95
80 74 72 74 68 58 76 83 80 85 90 90 90 90 88 86 88 87 87 84 80 94 87 87 90 89 91 93 98 99 99 99 99 98 97 96 97 95
84 83 79 72 71 63 60 59 62 75 84 90 91 88 83 86 85 88 90 92 91 88 83 80 75 85 89 91 95 97 98 98 98 98 96 96 96 97
86 86 77 60 76 75 70 61 63 60 60 76 82 84 85 78 84 86 88 92 92 82 87 92 83 89 84 88 92 95 97 98 98 98 98 97 97 97
84 83 80 79 77 69 77 83 79 78 78 72 81 82 84 82 85 82 86 89 84 82 86 93 88 88 83 89 88 93 95 97 98 98 98 98 98 98
77 75 74 77 69 62 74 80 80 80 66 67 68 71 68 61 67 81 93 94 91 87 81 89 95 91 91 91 91 88 94 97 98 98 98 98 97 97
76 76 69 66 65 64 72 83 89 84 88 86 89 86 72 79 69 86 97 96 88 92 91 93 88 96 98 95 95 94 94 96 99 98 97 97 97 98
84 79 78 66 64 64 66 74 88 91 94 88 93 89 84 87 89 91 92 98 97 94 82 87 92 92 94 90 94 86 94 95 98 99 98 97 96 94
71 74 80 70 69 69 68 72 66 65 85 92 94 91 92 93 93 93 93 95 95 91 83 90 97 91 89 89 89 86 86 89 96 99 99 97 96 93
74 74 70 72 72 73 74 69 65 83 87 93 90 91 96 94 93 97 92 93 93 91 84 89 92 87 88 94 93 86 88 94 98 100 100 98 98 97
80 93 82 72 73 72 75 81 84 90 95 96 93 94 92 98 96 94 95 93 94 87 86 89 91 92 95 93 98 94 86 90 94 98 99 98 97 95
76 95 94 94 89 88 85 86 87 96 96 95 95 87 85 90 90 91 96 94 96 93 86 86 88 89 87 90 95 97 94 87 80 93 100 99 98 97
76 82 79 82 85 86 84 84 86 84 89 90 95 95 95 95 93 90 95 98 96 90 86 82 82 92 87 87 88 97 93 92 85 89 95 99 98 98
78 80 82 82 84 85 85 84 87 85 89 94 94 95 97 97 93 96 95 95 92 84 86 86 90 95 96 93 80 88 96 90 83 87 92 98 99 98
77 78 82 80 79 83 86 88 86 89 91 93 93 97 96 97 95 92 84 90 92 90 91 91 94 90 96 94 93 83 87 96 98 90 90 97 99 89
73 77 78 80 82 83 85 89 90 92 90 93 98 98 98 99 95 90 91 86 83 90 92 89 86 74 88 98 98 90 86 93 96 99 99 100 99 99
74 80 80 83 86 89 90 91 92 92 92 93 93 95 95 97 95 94 94 95 91 87 87 85 85 88 94 97 95 91 82 93 94 93 96 96 98 98
82 84 87 89 90 91 93 94 93 92 91 93 94 94 95 95 93 93 94 86 88 91 91 87 88 88 92 97 95 95 91 94 96 98 99 95 88 83

GFSNE_sfc_rhum_123.txt.gz
RH
92 94 94 96 89 88 88 90 93 96 95 93 93 81 78 76 77 83 83 84 88 90 92 94 91 88 86 85 82 79 76 79 85 82 80 83 91 92
81 82 83 91 83 84 94 91 90 92 95 90 90 87 80 68 75 83 76 91 90 86 86 91 93 95 92 90 88 90 91 89 84 84 82 86 85 92
73 77 78 78 81 84 92 89 93 96 97 92 86 80 79 84 80 79 86 82 88 79 78 81 92 94 96 96 96 96 95 94 93 92 87 84 89 92
78 82 79 63 81 84 93 84 93 94 95 96 85 91 89 83 84 83 76 70 79 68 66 86 89 92 93 96 98 97 98 96 94 95 93 89 90 90
80 81 81 80 85 90 88 95 93 84 96 98 98 95 94 92 85 84 78 76 68 65 59 81 84 83 84 90 93 97 99 98 97 98 98 95 94 94
80 80 79 83 86 79 89 90 84 91 93 96 96 95 94 89 91 89 86 81 80 61 75 66 64 66 66 80 89 96 99 99 99 98 99 100 99 98
82 80 77 73 68 67 78 86 82 87 91 92 92 93 91 85 91 88 90 85 79 88 82 76 79 79 76 72 82 89 94 96 98 99 99 99 99 99
84 84 81 70 74 66 67 61 65 78 83 91 90 91 88 87 88 88 90 92 91 85 86 86 82 83 82 85 82 88 91 93 95 97 99 99 99 99
86 86 77 63 80 79 74 69 68 65 64 80 90 90 89 84 89 94 93 93 91 83 86 88 82 86 77 78 77 81 81 85 90 94 97 99 98 98
86 86 86 84 84 74 77 82 84 80 81 76 83 85 89 85 90 86 90 94 92 84 85 94 80 93 83 78 68 85 87 91 94 96 97 98 98 98
80 82 83 83 70 65 76 86 83 82 69 69 70 69 70 71 66 87 93 99 91 82 85 91 90 81 77 81 94 74 76 76 82 90 96 98 98 99
83 86 70 66 63 62 71 85 95 94 92 92 93 88 84 80 69 85 96 97 98 96 88 93 88 95 93 90 85 76 81 73 76 76 84 97 99 99
83 81 79 69 66 66 66 74 84 77 78 89 96 95 93 88 87 88 89 98 99 96 84 92 98 88 90 91 86 79 84 86 82 79 73 87 98 97
82 83 83 74 70 66 67 69 66 65 83 92 94 92 92 90 92 94 91 95 95 94 88 92 94 94 94 92 88 80 80 80 86 93 93 92 98 97
78 78 68 70 72 75 73 67 65 89 92 94 93 93 95 95 93 97 94 93 94 92 84 88 95 92 95 96 94 90 85 84 84 90 93 91 97 99
78 86 79 75 71 68 71 81 86 93 95 94 96 97 98 98 96 97 99 93 97 92 87 89 91 94 94 95 94 91 88 93 90 84 88 88 91 99
71 96 91 80 80 79 82 83 88 96 97 97 95 89 82 81 87 97 97 95 95 89 90 91 87 87 90 94 96 85 88 87 85 91 93 91 89 97
81 84 81 83 85 84 85 86 87 81 84 92 94 96 94 94 93 93 89 92 94 87 92 89 94 89 84 84 82 90 84 83 86 86 90 91 88 90
80 82 84 83 83 82 84 85 87 84 88 97 96 97 95 96 93 94 93 94 91 86 89 83 92 96 95 94 79 66 93 87 89 93 86 88 91 88
77 80 84 82 82 85 86 87 86 89 93 93 95 95 98 97 96 96 94 93 92 89 89 91 94 95 96 92 92 82 74 88 94 92 86 90 85 80
75 80 81 83 85 86 87 90 91 92 92 95 95 96 96 98 95 94 94 85 86 94 94 88 86 75 90 97 96 86 80 80 83 89 87 97 98 98
77 82 84 86 89 93 94 93 93 92 92 93 93 94 95 96 95 94 94 94 92 92 91 85 81 85 93 94 94 89 86 82 84 83 83 87 100 98
84 86 89 90 92 94 94 94 93 92 92 94 94 94 94 95 92 93 93 93 93 93 90 91 89 87 91 92 91 93 91 93 87 92 92 84 88 94

GFSNE_sfc_rhum_126.txt.gz
RH
88 90 92 91 89 91 93 95 98 98 98 96 96 76 71 67 77 78 75 82 82 83 81 78 84 90 90 94 92 90 88 87 85 83 82 89 83 79
76 82 86 82 82 87 94 89 92 96 98 92 88 84 75 67 75 81 83 78 83 71 69 68 86 90 90 92 94 96 94 92 89 86 83 79 77 80
79 78 73 70 81 86 91 84 88 92 95 90 85 80 83 86 84 75 77 79 79 65 62 61 86 87 84 87 91 93 97 96 94 92 89 85 81 80
85 84 80 65 82 84 91 92 91 91 94 96 89 88 86 88 84 87 74 65 79 63 62 74 74 70 67 68 82 89 94 94 98 96 91 89 90 89
86 86 85 86 90 88 92 92 90 80 92 94 94 94 94 93 86 86 82 88 70 64 70 65 65 66 66 65 65 74 86 90 92 96 98 96 91 91
84 83 83 88 88 86 89 89 82 87 90 92 93 94 94 90 92 91 87 84 83 68 71 65 68 71 69 69 76 84 87 88 88 91 94 97 98 94
83 81 78 72 68 67 75 89 84 86 90 90 90 94 91 91 92 94 93 90 82 94 81 79 81 84 78 74 76 76 76 76 80 85 89 92 96 98
89 87 82 72 78 70 66 66 71 84 85 91 93 93 90 92 93 95 96 96 95 87 88 88 86 84 83 84 72 65 71 81 82 86 88 91 95 98
87 88 82 69 84 86 79 73 75 70 69 83 92 92 91 90 91 94 93 96 96 83 91 91 80 86 78 60 62 65 85 81 77 84 90 94 96 98
84 87 90 90 86 75 84 86 85 86 85 79 86 87 91 89 86 85 93 95 95 90 87 99 89 85 74 77 70 78 70 69 73 77 76 87 91 97
81 85 85 81 71 64 76 84 87 89 75 72 72 80 80 74 74 88 94 99 95 92 89 93 90 87 84 85 93 70 67 69 71 75 78 72 81 92
84 84 76 69 66 64 70 84 91 93 92 92 92 92 86 87 77 86 94 99 92 96 88 96 92 95 95 88 87 75 79 70 69 68 72 80 85 94
80 81 79 72 68 67 71 71 87 76 76 91 94 96 93 92 91 88 90 97 99 94 83 89 96 95 98 90 87 82 82 84 78 78 74 74 78 81
75 84 86 75 70 70 73 69 65 65 88 91 91 92 94 93 94 95 91 95 95 92 87 95 96 98 94 90 85 81 83 83 87 85 86 83 75 81
71 78 68 67 71 77 71 66 64 88 93 94 94 96 98 96 95 96 93 92 94 92 81 93 99 96 97 88 91 86 85 88 86 93 97 86 86 86
80 86 86 76 69 65 68 74 84 92 96 94 90 92 97 100 97 96 97 94 99 90 87 92 95 97 98 92 88 92 88 90 90 87 90 91 88 88
72 96 88 78 79 77 77 78 82 89 92 90 94 91 85 84 87 95 98 98 94 85 86 92 90 90 91 92 95 81 81 84 86 88 88 90 90 93
90 87 80 81 83 82 83 84 84 82 84 88 92 96 95 94 93 92 92 94 95 91 87 84 86 92 90 85 77 88 89 92 88 80 80 96 92 92
82 80 84 84 84 84 85 88 89 84 87 93 95 95 97 95 92 95 94 94 93 91 88 88 91 99 95 91 83 63 88 85 88 90 88 90 95 88
76 81 86 84 84 87 88 90 89 90 93 94 95 95 97 97 96 95 96 96 94 92 91 91 99 96 96 92 91 84 72 87 88 90 88 85 87 80
79 83 83 86 88 89 90 92 93 93 92 95 95 95 95 97 94 94 95 90 90 94 95 92 88 76 92 96 96 87 82 75 79 88 91 94 92 91
81 86 86 88 91 93 94 94 94 92 92 93 93 93 93 95 95 94 94 95 93 93 92 89 90 94 92 95 91 87 84 81 78 78 80 83 96 96
86 88 90 92 92 94 94 94 93 92 91 92 94 93 93 95 93 94 94 94 94 94 92 93 92 92 93 94 91 92 89 88 87 89 88 79 82 82

GFSNE_sfc_rhum_129.txt.gz
RH
86 87 81 78 75 78 76 80 90 93 94 94 94 91 92 90 87 77 71 71 74 66 64 64 82 88 88 88 88 91 90 92 92 90 88 88 89 86
65 62 63 66 70 80 78 77 86 87 87 90 92 90 86 78 74 79 71 64 64 63 61 60 80 82 78 77 84 88 90 90 91 91 89 89 86 84
65 67 64 62 70 74 77 78 78 80 81 76 80 75 77 77 67 66 60 56 56 62 66 72 71 68 67 68 68 79 83 88 90 93 96 94 90 88
67 70 67 63 70 72 75 74 71 72 74 75 71 75 66 71 71 69 62 50 59 58 72 63 64 65 66 66 66 68 76 84 88 89 90 93 97 93
66 65 66 70 71 73 74 72 71 65 73 75 75 75 71 69 73 70 68 64 51 63 60 57 63 65 65 66 71 76 77 75 74 82 86 89 91 94
66 66 64 68 68 67 66 73 66 71 71 73 72 74 77 69 76 80 77 66 64 60 59 56 62 66 68 68 73 75 67 69 74 78 81 85 89 89
66 65 64 67 68 65 61 68 74 73 74 74 74 76 72 70 73 75 78 73 63 76 62 59 58 62 62 62 59 59 61 76 83 82 84 84 87 90
68 67 66 69 69 74 72 69 66 69 76 80 78 76 72 71 73 78 76 79 78 64 67 63 58 63 58 51 58 65 71 76 76 77 77 79 85 90
68 68 67 63 78 67 71 72 69 68 69 71 76 72 73 69 74 79 80 80 76 63 67 66 57 66 49 43 61 73 74 69 67 66 72 77 75 79
70 68 72 72 69 63 64 66 63 64 67 67 73 74 74 75 80 83 88 77 74 69 67 74 67 68 59 58 61 71 63 59 62 67 67 68 72 78
64 64 68 68 68 65 61 68 64 67 66 71 69 72 72 74 70 95 91 86 78 68 64 78 70 74 68 69 65 66 60 64 65 65 65 69 72 76
64 64 72 66 67 63 66 74 80 68 67 70 72 72 71 73 73 74 78 88 81 81 73 78 70 74 80 68 68 60 61 64 69 67 67 69 70 76
60 60 62 73 69 69 70 72 77 66 64 68 70 69 66 65 65 70 70 82 86 86 68 72 81 76 76 77 67 65 65 69 68 69 70 69 78 76
62 60 63 74 75 69 68 69 66 65 68 68 68 68 75 77 78 81 81 82 84 86 73 75 90 83 88 87 80 66 70 71 71 80 79 82 72 73
61 68 67 71 71 72 67 64 62 62 68 72 70 75 79 82 84 83 82 78 81 79 72 80 85 84 88 91 87 80 79 71 78 85 82 80 81 83
73 73 78 77 73 65 61 60 61 67 74 77 75 72 70 79 77 75 79 75 80 77 73 77 82 87 92 87 87 88 79 86 76 80 83 84 77 79
71 80 82 70 66 62 62 64 66 69 75 74 75 73 71 71 74 75 78 80 86 84 78 71 72 76 81 89 93 82 81 80 78 83 82 81 78 79
79 87 74 67 68 68 69 70 70 74 73 76 79 82 86 87 86 84 84 88 89 84 85 80 79 82 81 77 77 87 83 85 81 82 81 91 85 80
80 73 71 72 74 74 76 79 82 77 82 86 91 93 93 91 89 89 88 89 90 88 88 84 88 90 94 93 69 60 81 79 81 82 79 83 87 82
67 69 76 74 75 79 81 83 83 86 88 90 92 93 94 96 94 93 91 93 91 90 91 90 92 92 96 93 90 79 67 84 83 85 86 82 81 75
70 73 74 77 80 82 85 89 91 90 88 93 93 94 94 95 93 92 93 88 90 93 94 90 86 76 90 93 95 84 76 66 72 86 86 89 88 83
71 76 77 80 84 88 89 90 92 90 91 92 92 94 93 94 94 92 91 93 89 89 91 89 87 90 92 95 91 87 81 77 71 70 71 77 91 91
77 79 82 85 88 89 89 92 91 91 89 92 94 94 95 95 89 91 90 90 91 92 91 92 88 88 92 91 90 91 89 87 83 86 82 73 76 81

GFSNE_sfc_rhum_132.txt.gz
RH
57 55 62 70 70 69 68 75 86 88 89 89 89 76 76 82 82 82 86 86 86 82 85 83 88 85 81 78 83 87 88 90 91 91 90 88 91 90
44 46 47 49 51 58 63 60 66 76 84 82 73 65 64 62 72 69 76 81 79 82 81 87 83 77 70 71 70 76 81 86 87 88 90 92 88 89
46 51 49 48 51 56 58 55 57 59 60 49 50 50 53 57 61 61 60 60 64 59 77 66 64 65 67 66 67 69 74 80 84 86 88 89 90 94
48 52 52 44 53 55 57 55 55 54 60 60 52 59 55 54 58 61 55 47 53 54 67 55 58 62 64 63 67 73 77 73 74 76 80 85 88 90
47 47 48 50 52 54 56 58 60 53 61 65 62 61 62 55 61 59 55 60 49 58 54 51 57 59 65 67 69 73 67 63 68 76 77 80 83 86
50 52 50 52 53 53 50 54 54 61 60 63 64 64 64 59 55 62 62 58 61 50 53 52 53 53 56 58 54 56 62 67 79 81 80 83 86 87
48 48 50 62 67 66 58 59 57 65 71 71 70 66 60 58 63 62 63 60 56 60 54 50 50 49 46 47 44 56 67 71 75 74 73 77 78 80
51 49 48 58 58 67 66 69 68 64 64 65 70 70 61 57 56 62 67 72 72 51 56 54 44 47 43 40 50 57 72 68 68 67 66 66 71 73
56 55 51 45 66 53 56 60 60 61 64 63 65 61 61 58 61 70 68 74 70 60 63 65 48 52 45 37 53 59 72 64 60 62 64 66 67 68
58 56 53 53 57 60 56 55 54 52 54 52 57 59 63 62 68 75 90 96 75 67 57 76 52 58 50 49 53 56 66 60 62 64 67 65 66 69
52 52 52 54 58 65 60 64 59 57 53 60 64 69 71 70 70 70 80 80 77 69 60 72 63 62 58 57 51 57 57 58 60 64 67 66 67 68
51 51 60 62 67 63 63 67 71 62 56 58 58 56 55 55 62 64 66 82 80 79 60 75 65 67 72 57 58 52 50 54 60 60 62 64 68 68
54 49 50 62 64 66 71 68 70 62 59 56 55 54 52 51 51 54 57 70 79 79 60 73 85 79 79 78 62 56 54 54 57 59 62 65 68 75
56 52 54 60 69 72 68 67 65 62 54 54 55 54 58 64 66 68 69 72 72 78 70 73 94 86 91 87 80 63 58 58 63 70 70 73 69 65
54 59 65 65 70 69 66 63 62 52 52 58 60 63 66 70 70 73 74 67 70 70 66 70 82 85 87 90 84 79 76 69 73 77 74 74 74 73
64 62 64 71 70 69 58 51 50 54 60 66 64 61 60 72 69 67 73 72 78 75 69 72 80 81 91 79 85 87 77 86 72 75 78 78 73 70
72 72 74 72 64 54 51 52 55 58 64 65 68 67 64 66 68 71 74 77 87 82 76 71 71 73 81 90 92 79 76 76 76 78 75 81 78 73
68 76 75 66 60 55 58 59 60 66 66 70 74 76 80 81 82 80 80 85 88 84 84 79 79 85 85 82 74 83 80 80 77 76 73 83 86 77
71 73 69 64 62 64 66 70 73 70 75 81 86 87 89 90 86 85 84 84 87 86 86 84 91 93 92 90 69 59 82 80 78 78 78 78 85 81
68 68 66 63 64 69 72 74 74 78 83 85 87 88 90 94 92 91 90 93 91 88 86 88 90 90 94 90 90 78 67 81 82 83 84 79 77 70
66 64 62 66 70 73 75 80 86 85 87 92 91 92 94 95 93 90 92 86 89 93 93 89 84 73 94 93 95 85 76 69 72 84 86 87 87 83
64 63 64 68 74 79 83 86 86 86 85 87 86 90 91 94 94 92 90 93 89 90 91 87 86 90 94 94 91 86 81 76 69 68 70 76 88 89
65 66 70 74 78 83 86 85 88 85 85 89 91 89 91 95 88 92 93 90 92 93 90 91 88 91 92 91 89 90 89 86 82 85 82 72 75 78